Skip Navigation
Skip Navigation

Today's Weather Data

Time Wind Dir Wind Spd
mph
Wind Gust
mph
Hum In
%
Humidity
%
Temp In
F
Temp
F
Raw Barom
in
Tot Rain
in
UV Solar
W/sqm
DailyRain
in
HourRain
in
24HrRain
in
RainRate
in/hr
1/21/2017 12:01:03a 260 5 11 31 88 72.0 46.9 29.62 16.00 0.0 0 2.00 0.00 2.00 0.000
1/21/2017 12:02:03a 267 3 7 31 88 72.0 46.8 29.62 16.00 0.0 0 0.00 0.00 2.00 0.000
1/21/2017 12:03:03a 199 7 11 31 88 72.0 46.8 29.62 16.00 0.0 0 0.00 0.00 2.00 0.000
1/21/2017 12:04:06a 199 6 11 31 88 72.0 46.8 29.62 16.00 0.0 0 0.00 0.00 2.00 0.000
1/21/2017 12:05:06a 207 3 11 31 88 72.0 46.7 29.62 16.00 0.0 0 0.00 0.00 2.00 0.000
1/21/2017 12:06:06a 208 2 11 31 88 72.0 46.7 29.62 16.00 0.0 0 0.00 0.00 2.00 0.000
1/21/2017 12:07:06a 219 2 11 31 88 72.0 46.7 29.62 16.00 0.0 0 0.00 0.00 2.00 0.000
1/21/2017 12:08:06a 243 4 11 31 88 72.0 46.7 29.62 16.00 0.0 0 0.00 0.00 2.00 0.000
1/21/2017 12:09:06a 268 5 11 31 88 72.0 46.6 29.62 16.00 0.0 0 0.00 0.00 2.00 0.000
1/21/2017 12:10:06a 279 6 11 31 88 72.0 46.6 29.62 16.00 0.0 0 0.00 0.00 2.00 0.000
1/21/2017 12:11:07a 255 3 11 31 88 72.0 46.6 29.62 16.00 0.0 0 0.00 0.00 2.00 0.000
1/21/2017 12:12:10a 240 0 11 31 88 72.0 46.6 29.62 16.00 0.0 0 0.00 0.00 2.00 0.000
1/21/2017 12:13:13a 230 3 11 31 88 72.0 46.6 29.62 16.00 0.0 0 0.00 0.00 2.00 0.000
1/21/2017 12:14:13a 233 5 11 31 88 72.0 46.6 29.62 16.00 0.0 0 0.00 0.00 2.00 0.000
1/21/2017 12:15:13a 224 5 11 31 88 72.0 46.5 29.62 16.00 0.0 0 0.00 0.00 2.00 0.000
1/21/2017 12:16:13a 220 4 11 31 88 72.0 46.5 29.62 16.00 0.0 0 0.00 0.00 2.00 0.000
1/21/2017 12:17:13a 254 4 6 31 88 72.0 46.5 29.62 16.00 0.0 0 0.00 0.00 2.00 0.000
1/21/2017 12:18:13a 254 2 6 31 88 72.0 46.5 29.63 16.00 0.0 0 0.00 0.00 2.00 0.000
1/21/2017 12:19:13a 254 1 6 31 88 72.0 46.5 29.63 16.00 0.0 0 0.00 0.00 2.00 0.000
1/21/2017 12:20:13a 249 4 6 31 88 72.0 46.5 29.63 16.00 0.0 0 0.00 0.00 2.00 0.000
1/21/2017 12:21:13a 220 4 6 31 88 72.0 46.5 29.63 16.00 0.0 0 0.00 0.00 2.00 0.000
1/21/2017 12:22:16a 212 4 6 31 88 72.0 46.5 29.63 16.00 0.0 0 0.00 0.00 2.00 0.000
1/21/2017 12:23:16a 243 3 6 31 88 72.0 46.4 29.63 16.00 0.0 0 0.00 0.00 2.00 0.000
1/21/2017 12:24:20a 251 2 6 31 88 72.0 46.4 29.63 16.00 0.0 0 0.00 0.00 2.00 0.000
1/21/2017 12:25:20a 249 2 6 31 88 72.0 46.4 29.63 16.00 0.0 0 0.00 0.00 2.00 0.000
1/21/2017 12:26:20a 246 1 6 31 88 72.0 46.4 29.63 16.00 0.0 0 0.00 0.00 2.00 0.000
1/21/2017 12:27:20a 200 7 8 31 88 72.0 46.4 29.63 16.00 0.0 0 0.00 0.00 2.00 0.000
1/21/2017 12:28:20a 193 4 8 31 88 72.0 46.4 29.63 16.00 0.0 0 0.00 0.00 2.00 0.000
1/21/2017 12:29:20a 191 7 11 31 88 72.0 46.3 29.63 16.00 0.0 0 0.00 0.00 2.00 0.000
1/21/2017 12:30:20a 223 9 12 31 88 72.0 46.3 29.63 16.00 0.0 0 0.00 0.00 2.00 0.000
1/21/2017 12:31:20a 253 5 12 31 88 72.0 46.3 29.63 16.00 0.0 0 0.00 0.00 2.00 0.000
1/21/2017 12:32:20a 262 10 10 31 88 72.0 46.3 29.63 16.00 0.0 0 0.00 0.00 2.00 0.000
1/21/2017 12:33:20a 232 6 11 31 87 72.0 46.2 29.63 16.00 0.0 0 0.00 0.00 1.99 0.000
1/21/2017 12:34:20a 232 4 11 31 87 72.0 46.2 29.63 16.00 0.0 0 0.00 0.00 1.99 0.000
1/21/2017 12:35:20a 207 4 11 31 87 71.8 46.2 29.63 16.00 0.0 0 0.00 0.00 1.99 0.000
1/21/2017 12:36:20a 206 11 11 31 87 71.8 46.1 29.63 16.00 0.0 0 0.00 0.00 1.99 0.000
1/21/2017 12:37:20a 232 5 11 31 87 72.0 46.1 29.63 16.00 0.0 0 0.00 0.00 1.99 0.000
1/21/2017 12:38:20a 227 5 11 31 87 72.0 46.1 29.64 16.00 0.0 0 0.00 0.00 1.99 0.000
1/21/2017 12:39:26a 231 4 11 31 87 72.0 46.1 29.64 16.00 0.0 0 0.00 0.00 1.99 0.000
1/21/2017 12:40:29a 264 4 11 31 87 72.0 46.0 29.64 16.00 0.0 0 0.00 0.00 1.99 0.000
1/21/2017 12:41:30a 242 3 11 31 87 72.0 46.0 29.64 16.00 0.0 0 0.00 0.00 1.99 0.000
1/21/2017 12:42:30a 237 3 11 31 87 72.0 46.0 29.63 16.00 0.0 0 0.00 0.00 1.99 0.000
1/21/2017 12:43:30a 199 6 11 31 87 72.0 46.0 29.63 16.00 0.0 0 0.00 0.00 1.99 0.000
1/21/2017 12:44:30a 245 10 12 31 87 71.8 45.9 29.63 16.00 0.0 0 0.00 0.00 1.99 0.000
1/21/2017 12:45:33a 213 8 12 31 87 71.8 45.9 29.64 16.00 0.0 0 0.00 0.00 1.99 0.000
1/21/2017 12:46:33a 235 5 5 31 87 71.8 45.9 29.64 16.00 0.0 0 0.00 0.00 1.99 0.000
1/21/2017 12:47:33a 230 5 10 31 87 71.8 45.9 29.64 16.00 0.0 0 0.00 0.00 1.99 0.000
1/21/2017 12:48:33a 215 6 11 31 87 71.8 45.9 29.64 16.00 0.0 0 0.00 0.00 1.97 0.000
1/21/2017 12:49:33a 265 6 11 31 87 71.8 45.9 29.64 16.00 0.0 0 0.00 0.00 1.97 0.000
1/21/2017 12:50:33a 205 7 11 31 87 71.8 45.9 29.64 16.00 0.0 0 0.00 0.00 1.97 0.000
1/21/2017 12:51:36a 233 12 13 31 87 71.8 45.8 29.64 16.00 0.0 0 0.00 0.00 1.97 0.000
1/21/2017 12:52:36a 195 10 13 31 87 71.8 45.8 29.64 16.00 0.0 0 0.00 0.00 1.97 0.000
1/21/2017 12:53:36a 209 6 13 31 87 71.8 45.8 29.64 16.00 0.0 0 0.00 0.00 1.97 0.000
1/21/2017 12:54:36a 227 3 13 31 87 71.8 45.8 29.64 16.00 0.0 0 0.00 0.00 1.97 0.000
1/21/2017 12:55:36a 241 1 13 31 87 71.8 45.8 29.64 16.00 0.0 0 0.00 0.00 1.97 0.000
1/21/2017 12:56:37a 264 4 13 31 87 71.8 45.8 29.64 16.00 0.0 0 0.00 0.00 1.97 0.000
1/21/2017 12:57:37a 269 4 13 31 87 71.8 45.8 29.64 16.00 0.0 0 0.00 0.00 1.97 0.000
1/21/2017 12:58:37a 268 5 13 31 87 71.8 45.8 29.64 16.00 0.0 0 0.00 0.00 1.97 0.000
1/21/2017 12:59:37a 271 2 13 31 87 71.8 45.8 29.64 16.00 0.0 0 0.00 0.00 1.97 0.000
1/21/2017 1:00:37a 271 0 13 31 87 71.8 45.8 29.64 16.00 0.0 0 0.00 0.00 1.97 0.000
1/21/2017 1:01:37a 270 1 1 31 87 71.8 45.8 29.64 16.00 0.0 0 0.00 0.00 1.97 0.000
1/21/2017 1:02:37a 212 5 5 31 87 71.8 45.8 29.64 16.00 0.0 0 0.00 0.00 1.96 0.000
1/21/2017 1:03:37a 211 3 6 31 87 71.8 45.8 29.64 16.00 0.0 0 0.00 0.00 1.96 0.000
1/21/2017 1:04:37a 270 5 6 31 87 71.8 45.8 29.64 16.00 0.0 0 0.00 0.00 1.96 0.000
1/21/2017 1:05:37a 291 4 6 31 86 71.8 45.8 29.65 16.00 0.0 0 0.00 0.00 1.96 0.000
1/21/2017 1:06:37a 291 0 6 31 86 71.8 45.8 29.64 16.00 0.0 0 0.00 0.00 1.96 0.000
1/21/2017 1:07:37a 287 2 6 31 86 71.8 45.8 29.64 16.00 0.0 0 0.00 0.00 1.96 0.000
1/21/2017 1:08:37a 129 5 6 31 87 71.8 45.8 29.64 16.00 0.0 0 0.00 0.00 1.96 0.000
1/21/2017 1:09:37a 168 5 8 31 87 71.8 45.8 29.65 16.00 0.0 0 0.00 0.00 1.96 0.000
1/21/2017 1:10:38a 166 3 8 31 86 71.6 45.8 29.65 16.00 0.0 0 0.00 0.00 1.96 0.000
1/21/2017 1:11:38a 166 0 8 31 86 71.6 45.7 29.65 16.00 0.0 0 0.00 0.00 1.96 0.000
1/21/2017 1:12:38a 170 0 8 31 86 71.6 45.7 29.65 16.00 0.0 0 0.00 0.00 1.96 0.000
1/21/2017 1:13:38a 175 3 8 31 86 71.6 45.7 29.65 16.00 0.0 0 0.00 0.00 1.96 0.000
1/21/2017 1:14:41a 159 5 8 31 86 71.6 45.7 29.65 16.00 0.0 0 0.00 0.00 1.96 0.000
1/21/2017 1:15:41a 170 7 8 31 86 71.6 45.7 29.65 16.00 0.0 0 0.00 0.00 1.96 0.000
1/21/2017 1:16:41a 157 7 7 31 86 71.6 45.7 29.65 16.00 0.0 0 0.00 0.00 1.96 0.000
1/21/2017 1:17:41a 174 2 7 31 86 71.6 45.7 29.65 16.00 0.0 0 0.00 0.00 1.94 0.000
1/21/2017 1:18:41a 173 0 7 31 86 71.6 45.7 29.66 16.00 0.0 0 0.00 0.00 1.94 0.000
1/21/2017 1:19:41a 173 0 7 31 86 71.6 45.7 29.66 16.00 0.0 0 0.00 0.00 1.94 0.000
1/21/2017 1:20:41a 174 0 7 31 86 71.6 45.7 29.66 16.00 0.0 0 0.00 0.00 1.94 0.000
1/21/2017 1:21:41a 173 0 7 31 86 71.6 45.7 29.66 16.00 0.0 0 0.00 0.00 1.94 0.000
1/21/2017 1:22:41a 173 3 7 31 86 71.6 45.7 29.66 16.00 0.0 0 0.00 0.00 1.94 0.000
1/21/2017 1:23:41a 129 6 7 31 86 71.6 45.7 29.66 16.00 0.0 0 0.00 0.00 1.94 0.000
1/21/2017 1:24:41a 139 6 7 31 86 71.6 45.7 29.66 16.00 0.0 0 0.00 0.00 1.94 0.000
1/21/2017 1:25:41a 94 10 10 31 86 71.6 45.7 29.66 16.00 0.0 0 0.00 0.00 1.94 0.000
1/21/2017 1:26:41a 119 7 12 30 86 71.6 45.7 29.66 16.00 0.0 0 0.00 0.00 1.94 0.000
1/21/2017 1:27:41a 91 7 12 30 86 71.6 45.7 29.66 16.00 0.0 0 0.00 0.00 1.94 0.000
1/21/2017 1:28:41a 102 6 12 30 86 71.6 45.7 29.66 16.00 0.0 0 0.00 0.00 1.94 0.000
1/21/2017 1:29:45a 81 4 12 30 85 71.6 45.7 29.66 16.00 0.0 0 0.00 0.00 1.94 0.000
1/21/2017 1:30:45a 77 0 12 30 85 71.6 45.7 29.66 16.00 0.0 0 0.00 0.00 1.94 0.000
1/21/2017 1:31:45a 136 6 6 30 85 71.6 45.7 29.65 16.00 0.0 0 0.00 0.00 1.94 0.000
1/21/2017 1:32:48a 124 6 14 30 85 71.6 45.7 29.66 16.00 0.0 0 0.00 0.00 1.90 0.000
1/21/2017 1:33:48a 150 0 14 30 85 71.6 45.7 29.66 16.00 0.0 0 0.00 0.00 1.90 0.000
1/21/2017 1:34:48a 317 4 14 30 85 71.6 45.8 29.66 16.00 0.0 0 0.00 0.00 1.90 0.000
1/21/2017 1:35:48a 304 7 14 30 85 71.8 45.8 29.66 16.00 0.0 0 0.00 0.00 1.90 0.000
1/21/2017 1:36:48a 327 4 14 30 85 71.8 45.8 29.67 16.00 0.0 0 0.00 0.00 1.90 0.000
1/21/2017 1:37:51a 351 7 14 30 85 71.8 45.8 29.67 16.00 0.0 0 0.00 0.00 1.90 0.000
1/21/2017 1:38:54a 84 8 14 30 85 71.8 45.9 29.66 16.00 0.0 0 0.00 0.00 1.90 0.000
1/21/2017 1:39:54a 124 5 14 30 85 71.8 45.9 29.66 16.00 0.0 0 0.00 0.00 1.90 0.000
1/21/2017 1:40:54a 93 0 14 30 85 71.8 45.9 29.66 16.00 0.0 0 0.00 0.00 1.90 0.000
1/21/2017 1:41:54a 87 1 14 30 85 71.8 45.9 29.66 16.00 0.0 0 0.00 0.00 1.90 0.000
1/21/2017 1:42:54a 81 4 14 30 85 71.8 45.9 29.67 16.00 0.0 0 0.00 0.00 1.90 0.000
1/21/2017 1:43:54a 237 4 14 30 85 71.8 45.9 29.66 16.00 0.0 0 0.00 0.00 1.90 0.000
1/21/2017 1:44:55a 358 7 15 30 85 71.8 45.9 29.67 16.00 0.0 0 0.00 0.00 1.90 0.000
1/21/2017 1:45:55a 103 4 15 30 84 71.8 45.9 29.66 16.00 0.0 0 0.00 0.00 1.90 0.000
1/21/2017 1:46:55a 119 13 14 30 84 71.8 45.9 29.66 16.00 0.0 0 0.00 0.00 1.85 0.000
1/21/2017 1:47:55a 142 3 14 30 84 71.8 45.9 29.66 16.00 0.0 0 0.00 0.00 1.85 0.000
1/21/2017 1:48:55a 21 5 14 30 84 71.8 45.9 29.67 16.00 0.0 0 0.00 0.00 1.85 0.000
1/21/2017 1:49:58a 59 12 14 30 84 71.8 45.9 29.67 16.00 0.0 0 0.00 0.00 1.85 0.000
1/21/2017 1:51:01a 110 7 14 30 84 71.8 45.9 29.67 16.00 0.0 0 0.00 0.00 1.85 0.000
1/21/2017 1:52:01a 119 7 14 30 84 71.8 45.9 29.67 16.00 0.0 0 0.00 0.00 1.85 0.000
1/21/2017 1:53:01a 100 4 14 30 84 71.8 45.9 29.67 16.00 0.0 0 0.00 0.00 1.85 0.000
1/21/2017 1:54:01a 50 4 14 30 84 71.8 45.9 29.67 16.00 0.0 0 0.00 0.00 1.85 0.000
1/21/2017 1:55:01a 4 3 14 30 84 71.8 45.9 29.67 16.00 0.0 0 0.00 0.00 1.85 0.000
1/21/2017 1:56:01a 343 2 14 30 84 71.8 45.9 29.67 16.00 0.0 0 0.00 0.00 1.85 0.000
1/21/2017 1:57:01a 345 6 14 30 84 71.8 46.0 29.67 16.00 0.0 0 0.00 0.00 1.85 0.000
1/21/2017 1:58:01a 8 2 14 30 84 71.8 46.0 29.68 16.00 0.0 0 0.00 0.00 1.85 0.000
1/21/2017 1:59:04a 8 0 14 30 84 71.8 46.0 29.67 16.00 0.0 0 0.00 0.00 1.85 0.000
1/21/2017 2:00:04a 124 5 14 30 84 71.8 46.1 29.67 16.00 0.0 0 0.00 0.00 1.85 0.000
1/21/2017 2:01:04a 174 5 14 30 84 71.8 46.0 29.67 16.00 0.0 0 0.00 0.00 1.85 0.000
1/21/2017 2:02:04a 176 3 4 30 84 71.8 46.0 29.68 16.00 0.0 0 0.00 0.00 1.85 0.000
1/21/2017 2:03:05a 183 2 4 30 83 71.8 46.0 29.68 16.00 0.0 0 0.00 0.00 1.80 0.000
1/21/2017 2:04:05a 217 3 4 30 83 71.8 46.0 29.68 16.00 0.0 0 0.00 0.00 1.80 0.000
1/21/2017 2:05:08a 223 0 4 30 83 71.8 46.0 29.69 16.00 0.0 0 0.00 0.00 1.80 0.000
1/21/2017 2:06:08a 324 3 5 30 83 71.6 46.0 29.68 16.00 0.0 0 0.00 0.00 1.80 0.000
1/21/2017 2:07:14a 321 0 5 30 83 71.6 45.9 29.68 16.00 0.0 0 0.00 0.00 1.80 0.000
1/21/2017 2:08:17a 94 7 7 30 83 71.6 45.9 29.68 16.00 0.0 0 0.00 0.00 1.80 0.000
1/21/2017 2:09:20a 142 2 10 30 83 71.6 45.9 29.68 16.00 0.0 0 0.00 0.00 1.80 0.000
1/21/2017 2:10:20a 322 12 12 30 83 71.6 45.9 29.68 16.00 0.0 0 0.00 0.00 1.80 0.000
1/21/2017 2:11:20a 318 4 14 30 83 71.6 45.9 29.68 16.00 0.0 0 0.00 0.00 1.80 0.000
1/21/2017 2:12:20a 308 3 14 30 83 71.6 45.9 29.69 16.00 0.0 0 0.00 0.00 1.80 0.000
1/21/2017 2:13:20a 324 1 14 30 83 71.6 45.9 29.69 16.00 0.0 0 0.00 0.00 1.80 0.000
1/21/2017 2:14:20a 324 0 14 30 83 71.6 45.9 29.69 16.00 0.0 0 0.00 0.00 1.80 0.000
1/21/2017 2:15:20a 324 4 14 30 83 71.6 46.0 29.69 16.00 0.0 0 0.00 0.00 1.80 0.000
1/21/2017 2:16:20a 323 2 14 30 83 71.6 46.0 29.69 16.00 0.0 0 0.00 0.00 1.80 0.000
1/21/2017 2:17:20a 328 2 3 30 83 71.6 46.0 29.69 16.00 0.0 0 0.00 0.00 1.80 0.000
1/21/2017 2:18:20a 18 2 3 30 83 71.6 46.0 29.69 16.00 0.0 0 0.00 0.00 1.75 0.000
1/21/2017 2:19:27a 25 0 6 30 83 71.6 46.0 29.69 16.00 0.0 0 0.00 0.00 1.75 0.000
1/21/2017 2:20:27a 25 0 6 30 83 71.6 46.0 29.69 16.00 0.0 0 0.00 0.00 1.75 0.000
1/21/2017 2:21:27a 33 3 6 30 83 71.6 46.0 29.69 16.00 0.0 0 0.00 0.00 1.75 0.000
1/21/2017 2:22:30a 33 2 6 30 83 71.6 46.0 29.69 16.00 0.0 0 0.00 0.00 1.75 0.000
1/21/2017 2:23:30a 63 12 12 30 83 71.6 46.0 29.69 16.00 0.0 0 0.00 0.00 1.75 0.000
1/21/2017 2:24:30a 18 5 13 30 83 71.6 46.0 29.69 16.00 0.0 0 0.00 0.00 1.75 0.000
1/21/2017 2:25:30a 25 2 13 30 82 71.6 45.9 29.69 16.00 0.0 0 0.00 0.00 1.75 0.000
1/21/2017 2:26:33a 70 4 13 30 82 71.6 45.9 29.70 16.00 0.0 0 0.00 0.00 1.75 0.000
1/21/2017 2:27:33a 59 2 13 30 82 71.5 45.8 29.70 16.00 0.0 0 0.00 0.00 1.75 0.000
1/21/2017 2:28:33a 299 6 13 30 82 71.5 45.8 29.69 16.00 0.0 0 0.00 0.00 1.75 0.000
1/21/2017 2:29:33a 293 9 13 30 82 71.5 45.8 29.69 16.00 0.0 0 0.00 0.00 1.75 0.000
1/21/2017 2:30:39a 353 5 15 30 82 71.5 45.7 29.69 16.00 0.0 0 0.00 0.00 1.75 0.000
1/21/2017 2:31:39a 41 4 6 30 82 71.5 45.7 29.69 16.00 0.0 0 0.00 0.00 1.75 0.000
1/21/2017 2:32:39a 75 4 6 30 82 71.5 45.7 29.69 16.00 0.0 0 0.00 0.00 1.75 0.000
1/21/2017 2:33:39a 63 5 7 30 82 71.5 45.7 29.69 16.00 0.0 0 0.00 0.00 1.75 0.000
1/21/2017 2:34:40a 67 12 12 30 82 71.5 45.8 29.69 16.00 0.0 0 0.00 0.00 1.75 0.000
1/21/2017 2:35:40a 50 14 15 30 82 71.5 45.7 29.69 16.00 0.0 0 0.00 0.00 1.75 0.000
1/21/2017 2:36:40a 37 3 15 30 82 71.5 45.7 29.69 16.00 0.0 0 0.00 0.00 1.75 0.000
1/21/2017 2:37:43a 37 0 15 30 81 71.5 45.7 29.70 16.00 0.0 0 0.00 0.00 1.75 0.000
1/21/2017 2:38:43a 37 1 15 30 81 71.5 45.7 29.70 16.00 0.0 0 0.00 0.00 1.75 0.000
1/21/2017 2:39:43a 37 0 15 30 81 71.5 45.8 29.70 16.00 0.0 0 0.00 0.00 1.75 0.000
1/21/2017 2:40:43a 37 0 15 30 81 71.5 45.8 29.70 16.00 0.0 0 0.00 0.00 1.75 0.000
1/21/2017 2:41:43a 50 4 15 30 81 71.5 45.8 29.70 16.00 0.0 0 0.00 0.00 1.75 0.000
1/21/2017 2:42:43a 55 1 15 30 81 71.5 45.8 29.70 16.00 0.0 0 0.00 0.00 1.75 0.000
1/21/2017 2:43:43a 75 6 15 30 81 71.5 45.8 29.70 16.00 0.0 0 0.00 0.00 1.75 0.000
1/21/2017 2:44:43a 10 3 15 30 81 71.5 45.8 29.70 16.00 0.0 0 0.00 0.00 1.75 0.000
1/21/2017 2:45:43a 35 3 15 30 81 71.5 45.8 29.70 16.00 0.0 0 0.00 0.00 1.75 0.000
1/21/2017 2:46:43a 37 3 3 30 81 71.5 45.8 29.70 16.00 0.0 0 0.00 0.00 1.75 0.000
1/21/2017 2:47:43a 41 3 4 30 81 71.5 45.8 29.70 16.00 0.0 0 0.00 0.00 1.75 0.000
1/21/2017 2:48:43a 48 3 4 30 81 71.5 45.8 29.70 16.00 0.0 0 0.00 0.00 1.75 0.000
1/21/2017 2:49:44a 48 3 4 30 81 71.5 45.8 29.70 16.00 0.0 0 0.00 0.00 1.75 0.000
1/21/2017 2:50:44a 48 0 4 30 81 71.5 45.8 29.70 16.00 0.0 0 0.00 0.00 1.75 0.000
1/21/2017 2:51:44a 48 1 4 30 81 71.5 45.8 29.70 16.00 0.0 0 0.00 0.00 1.75 0.000
1/21/2017 2:52:44a 48 0 4 30 80 71.5 45.8 29.70 16.00 0.0 0 0.00 0.00 1.75 0.000
1/21/2017 2:53:44a 348 3 4 30 80 71.5 45.8 29.70 16.00 0.0 0 0.00 0.00 1.75 0.000
1/21/2017 2:54:44a 348 0 4 30 80 71.5 45.8 29.70 16.00 0.0 0 0.00 0.00 1.75 0.000
1/21/2017 2:55:47a 357 0 4 30 80 71.5 45.8 29.70 16.00 0.0 0 0.00 0.00 1.75 0.000
1/21/2017 2:56:47a 357 0 4 30 80 71.5 45.8 29.71 16.00 0.0 0 0.00 0.00 1.75 0.000
1/21/2017 2:57:47a 357 0 4 30 80 71.3 45.8 29.71 16.00 0.0 0 0.00 0.00 1.75 0.000
1/21/2017 2:58:47a 357 0 4 30 80 71.3 45.8 29.71 16.00 0.0 0 0.00 0.00 1.75 0.000
1/21/2017 2:59:47a 356 2 4 30 80 71.3 45.8 29.71 16.00 0.0 0 0.00 0.00 1.75 0.000
1/21/2017 3:00:47a 354 1 4 30 80 71.3 45.8 29.71 16.00 0.0 0 0.00 0.00 1.75 0.000
1/21/2017 3:01:48a 233 0 2 30 80 71.3 45.8 29.70 16.00 0.0 0 0.00 0.00 1.75 0.000
1/21/2017 3:02:51a 233 0 2 30 80 71.3 45.7 29.70 16.00 0.0 0 0.00 0.00 1.75 0.000
1/21/2017 3:03:51a 151 2 4 30 80 71.3 45.7 29.70 16.00 0.0 0 0.00 0.00 1.75 0.000
1/21/2017 3:04:54a 357 2 4 30 80 71.3 45.7 29.70 16.00 0.0 0 0.00 0.00 1.75 0.000
1/21/2017 3:05:54a 356 1 4 30 80 71.3 45.7 29.70 16.00 0.0 0 0.00 0.00 1.75 0.000
1/21/2017 3:06:54a 356 3 4 30 80 71.3 45.7 29.70 16.00 0.0 0 0.00 0.00 1.75 0.000
1/21/2017 3:07:54a 356 0 4 30 80 71.3 45.6 29.70 16.00 0.0 0 0.00 0.00 1.75 0.000
1/21/2017 3:08:54a 356 0 4 30 80 71.3 45.6 29.70 16.00 0.0 0 0.00 0.00 1.75 0.000
1/21/2017 3:09:54a 356 0 4 30 79 71.3 45.6 29.70 16.00 0.0 0 0.00 0.00 1.75 0.000
1/21/2017 3:10:57a 356 2 4 30 79 71.3 45.6 29.71 16.00 0.0 0 0.00 0.00 1.75 0.000
1/21/2017 3:11:57a 356 0 4 30 79 71.3 45.6 29.71 16.00 0.0 0 0.00 0.00 1.75 0.000
1/21/2017 3:12:57a 357 0 4 30 79 71.3 45.5 29.71 16.00 0.0 0 0.00 0.00 1.75 0.000
1/21/2017 3:13:57a 351 2 4 30 79 71.3 45.5 29.71 16.00 0.0 0 0.00 0.00 1.75 0.000
1/21/2017 3:14:57a 332 1 4 30 79 71.3 45.5 29.71 16.00 0.0 0 0.00 0.00 1.75 0.000
1/21/2017 3:15:58a 331 0 4 30 79 71.3 45.5 29.71 16.00 0.0 0 0.00 0.00 1.75 0.000
1/21/2017 3:17:01a 148 2 3 30 79 71.3 45.4 29.71 16.00 0.0 0 0.00 0.00 1.75 0.000
1/21/2017 3:18:01a 143 0 4 30 79 71.3 45.4 29.71 16.00 0.0 0 0.00 0.00 1.75 0.000
1/21/2017 3:19:01a 143 0 4 30 79 71.3 45.4 29.71 16.00 0.0 0 0.00 0.00 1.75 0.000
1/21/2017 3:20:01a 143 0 4 30 79 71.3 45.3 29.71 16.00 0.0 0 0.00 0.00 1.75 0.000
1/21/2017 3:21:01a 143 0 4 30 79 71.3 45.3 29.71 16.00 0.0 0 0.00 0.00 1.75 0.000
1/21/2017 3:22:04a 143 0 4 30 79 71.3 45.3 29.71 16.00 0.0 0 0.00 0.00 1.75 0.000
1/21/2017 3:23:04a 143 0 4 30 79 71.3 45.3 29.71 16.00 0.0 0 0.00 0.00 1.75 0.000
1/21/2017 3:24:07a 143 0 4 30 79 71.3 45.3 29.71 16.00 0.0 0 0.00 0.00 1.75 0.000
1/21/2017 3:25:07a 209 2 4 30 79 71.3 45.3 29.71 16.00 0.0 0 0.00 0.00 1.75 0.000
1/21/2017 3:26:07a 208 2 4 30 79 71.3 45.3 29.71 16.00 0.0 0 0.00 0.00 1.75 0.000
1/21/2017 3:27:07a 209 1 4 30 79 71.3 45.3 29.71 16.00 0.0 0 0.00 0.00 1.75 0.000
1/21/2017 3:28:07a 208 0 4 30 79 71.3 45.3 29.71 16.00 0.0 0 0.00 0.00 1.75 0.000
1/21/2017 3:29:07a 208 0 4 30 79 71.3 45.3 29.72 16.00 0.0 0 0.00 0.00 1.75 0.000
1/21/2017 3:30:07a 208 0 4 30 79 71.3 45.2 29.71 16.00 0.0 0 0.00 0.00 1.75 0.000
1/21/2017 3:31:07a 208 2 4 30 79 71.3 45.2 29.72 16.00 0.0 0 0.00 0.00 1.75 0.000
1/21/2017 3:32:11a 235 5 6 30 79 71.3 45.2 29.72 16.00 0.0 0 0.00 0.00 1.74 0.000
1/21/2017 3:33:11a 215 2 6 30 79 71.3 45.1 29.71 16.00 0.0 0 0.00 0.00 1.74 0.000
1/21/2017 3:34:11a 218 3 6 30 78 71.3 45.1 29.72 16.00 0.0 0 0.00 0.00 1.74 0.000
1/21/2017 3:35:11a 219 1 6 30 78 71.3 45.0 29.72 16.00 0.0 0 0.00 0.00 1.74 0.000
1/21/2017 3:36:11a 219 2 6 30 78 71.3 45.0 29.72 16.00 0.0 0 0.00 0.00 1.74 0.000
1/21/2017 3:37:11a 247 4 6 30 78 71.3 45.0 29.72 16.00 0.0 0 0.00 0.00 1.74 0.000
1/21/2017 3:38:11a 244 3 6 30 78 71.3 45.0 29.72 16.00 0.0 0 0.00 0.00 1.74 0.000
1/21/2017 3:39:11a 244 0 6 30 78 71.3 45.0 29.72 16.00 0.0 0 0.00 0.00 1.74 0.000
1/21/2017 3:40:11a 244 0 6 30 78 71.3 45.0 29.72 16.00 0.0 0 0.00 0.00 1.74 0.000
1/21/2017 3:41:11a 243 0 6 30 78 71.1 45.0 29.72 16.00 0.0 0 0.00 0.00 1.74 0.000
1/21/2017 3:42:11a 244 0 6 30 78 71.1 44.9 29.72 16.00 0.0 0 0.00 0.00 1.74 0.000
1/21/2017 3:43:11a 243 0 6 30 78 71.1 44.9 29.72 16.00 0.0 0 0.00 0.00 1.74 0.000
1/21/2017 3:44:14a 243 0 6 30 79 71.1 44.9 29.72 16.00 0.0 0 0.00 0.00 1.74 0.000
1/21/2017 3:45:17a 244 1 6 30 79 71.1 44.9 29.72 16.00 0.0 0 0.00 0.00 1.74 0.000
1/21/2017 3:46:17a 244 0 6 30 79 71.1 44.9 29.72 16.00 0.0 0 0.00 0.00 1.74 0.000
1/21/2017 3:47:17a 243 1 2 30 79 71.1 44.8 29.72 16.00 0.0 0 0.00 0.00 1.74 0.000
1/21/2017 3:48:17a 243 3 3 30 79 71.1 44.8 29.72 16.00 0.0 0 0.00 0.00 1.74 0.000
1/21/2017 3:49:17a 243 1 3 30 79 71.1 44.8 29.72 16.00 0.0 0 0.00 0.00 1.74 0.000
1/21/2017 3:50:18a 243 2 3 30 79 71.1 44.8 29.72 16.00 0.0 0 0.00 0.00 1.74 0.000
1/21/2017 3:51:18a 243 1 3 30 79 71.1 44.7 29.72 16.00 0.0 0 0.00 0.00 1.74 0.000
1/21/2017 3:52:18a 243 2 3 30 79 71.1 44.6 29.72 16.00 0.0 0 0.00 0.00 1.74 0.000
1/21/2017 3:53:18a 243 2 3 30 79 71.1 44.6 29.72 16.00 0.0 0 0.00 0.00 1.74 0.000
1/21/2017 3:54:18a 243 2 3 30 79 71.1 44.6 29.73 16.00 0.0 0 0.00 0.00 1.74 0.000
1/21/2017 3:55:18a 243 3 3 30 79 71.1 44.5 29.73 16.00 0.0 0 0.00 0.00 1.74 0.000
1/21/2017 3:56:18a 243 2 3 30 79 71.1 44.4 29.73 16.00 0.0 0 0.00 0.00 1.74 0.000
1/21/2017 3:57:18a 243 2 3 30 79 71.1 44.4 29.73 16.00 0.0 0 0.00 0.00 1.74 0.000
1/21/2017 3:58:18a 243 0 3 30 79 71.1 44.4 29.73 16.00 0.0 0 0.00 0.00 1.74 0.000
1/21/2017 3:59:18a 243 2 3 30 79 71.1 44.3 29.73 16.00 0.0 0 0.00 0.00 1.74 0.000
1/21/2017 4:00:18a 241 3 3 30 79 71.1 44.3 29.73 16.00 0.0 0 0.00 0.00 1.74 0.000
1/21/2017 4:01:18a 236 3 4 30 79 71.1 44.2 29.73 16.00 0.0 0 0.00 0.00 1.74 0.000
1/21/2017 4:02:19a 235 2 3 30 79 71.1 44.2 29.73 16.00 0.0 0 0.00 0.00 1.74 0.000
1/21/2017 4:03:19a 235 3 4 30 79 71.1 44.1 29.73 16.00 0.0 0 0.00 0.00 1.73 0.000
1/21/2017 4:04:19a 235 4 4 30 79 71.1 44.0 29.73 16.00 0.0 0 0.00 0.00 1.73 0.000
1/21/2017 4:05:19a 235 3 4 30 79 71.1 43.9 29.73 16.00 0.0 0 0.00 0.00 1.73 0.000
1/21/2017 4:06:19a 235 2 4 30 79 71.1 43.9 29.73 16.00 0.0 0 0.00 0.00 1.73 0.000
1/21/2017 4:07:19a 235 2 4 30 79 71.1 43.9 29.73 16.00 0.0 0 0.00 0.00 1.73 0.000
1/21/2017 4:08:19a 234 1 4 30 79 71.1 43.8 29.74 16.00 0.0 0 0.00 0.00 1.73 0.000
1/21/2017 4:09:19a 235 0 4 30 79 71.1 43.7 29.74 16.00 0.0 0 0.00 0.00 1.73 0.000
1/21/2017 4:10:19a 235 0 4 30 79 71.1 43.7 29.74 16.00 0.0 0 0.00 0.00 1.73 0.000
1/21/2017 4:11:22a 235 1 4 30 79 71.1 43.7 29.74 16.00 0.0 0 0.00 0.00 1.73 0.000
1/21/2017 4:12:22a 235 0 4 30 79 71.1 43.6 29.74 16.00 0.0 0 0.00 0.00 1.73 0.000
1/21/2017 4:13:22a 235 0 4 30 79 71.1 43.6 29.74 16.00 0.0 0 0.00 0.00 1.73 0.000
1/21/2017 4:14:22a 235 0 4 30 79 71.1 43.6 29.74 16.00 0.0 0 0.00 0.00 1.73 0.000
1/21/2017 4:15:22a 235 0 4 30 80 71.1 43.5 29.74 16.00 0.0 0 0.00 0.00 1.73 0.000
1/21/2017 4:16:22a 235 0 4 30 80 71.1 43.5 29.74 16.00 0.0 0 0.00 0.00 1.73 0.000
1/21/2017 4:17:22a 235 0 0 30 80 71.1 43.5 29.74 16.00 0.0 0 0.00 0.00 1.73 0.000
1/21/2017 4:18:23a 234 1 1 30 80 71.1 43.4 29.74 16.00 0.0 0 0.00 0.00 1.73 0.000
1/21/2017 4:19:23a 234 0 1 30 80 71.1 43.4 29.75 16.00 0.0 0 0.00 0.00 1.73 0.000
1/21/2017 4:20:26a 234 0 1 30 80 71.1 43.4 29.75 16.00 0.0 0 0.00 0.00 1.73 0.000
1/21/2017 4:21:29a 235 1 1 30 80 71.1 43.4 29.75 16.00 0.0 0 0.00 0.00 1.73 0.000
1/21/2017 4:22:29a 234 0 3 30 80 71.1 43.3 29.75 16.00 0.0 0 0.00 0.00 1.73 0.000
1/21/2017 4:23:29a 234 0 3 29 80 71.1 43.3 29.75 16.00 0.0 0 0.00 0.00 1.73 0.000
1/21/2017 4:24:29a 234 2 3 29 80 71.1 43.3 29.75 16.00 0.0 0 0.00 0.00 1.73 0.000
1/21/2017 4:25:29a 235 1 3 29 80 71.1 43.3 29.75 16.00 0.0 0 0.00 0.00 1.73 0.000
1/21/2017 4:26:29a 235 4 4 29 80 71.1 43.2 29.75 16.00 0.0 0 0.00 0.00 1.73 0.000
1/21/2017 4:27:29a 233 3 4 29 80 71.1 43.2 29.75 16.00 0.0 0 0.00 0.00 1.73 0.000
1/21/2017 4:28:29a 226 4 5 29 80 71.1 43.2 29.75 16.00 0.0 0 0.00 0.00 1.73 0.000
1/21/2017 4:29:29a 222 3 5 29 80 71.1 43.2 29.75 16.00 0.0 0 0.00 0.00 1.73 0.000
1/21/2017 4:30:29a 214 3 5 29 80 71.0 43.2 29.75 16.00 0.0 0 0.00 0.00 1.73 0.000
1/21/2017 4:31:32a 214 1 2 29 81 71.0 43.2 29.75 16.00 0.0 0 0.00 0.00 1.73 0.000
1/21/2017 4:32:32a 214 1 2 29 81 71.0 43.2 29.75 16.00 0.0 0 0.00 0.00 1.71 0.000
1/21/2017 4:33:32a 214 2 4 29 81 71.0 43.2 29.75 16.00 0.0 0 0.00 0.00 1.71 0.000
1/21/2017 4:34:33a 214 1 4 29 81 71.0 43.2 29.75 16.00 0.0 0 0.00 0.00 1.71 0.000
1/21/2017 4:35:33a 214 0 4 29 81 71.0 43.2 29.76 16.00 0.0 0 0.00 0.00 1.71 0.000
1/21/2017 4:36:33a 215 3 4 29 81 71.0 43.2 29.76 16.00 0.0 0 0.00 0.00 1.71 0.000
1/21/2017 4:37:33a 237 5 6 29 81 71.0 43.2 29.76 16.00 0.0 0 0.00 0.00 1.71 0.000
1/21/2017 4:38:33a 216 2 6 29 81 71.0 43.3 29.76 16.00 0.0 0 0.00 0.00 1.71 0.000
1/21/2017 4:39:33a 212 4 6 29 81 71.0 43.3 29.76 16.00 0.0 0 0.00 0.00 1.71 0.000
1/21/2017 4:40:33a 227 2 6 29 81 71.0 43.3 29.76 16.00 0.0 0 0.00 0.00 1.71 0.000
1/21/2017 4:41:33a 243 3 6 29 81 71.0 43.3 29.76 16.00 0.0 0 0.00 0.00 1.71 0.000
1/21/2017 4:42:33a 253 1 6 29 81 71.0 43.3 29.76 16.00 0.0 0 0.00 0.00 1.71 0.000
1/21/2017 4:43:33a 253 4 6 29 81 71.0 43.4 29.76 16.00 0.0 0 0.00 0.00 1.71 0.000
1/21/2017 4:44:33a 254 3 6 29 81 71.0 43.4 29.76 16.00 0.0 0 0.00 0.00 1.71 0.000
1/21/2017 4:45:33a 254 3 6 29 81 71.0 43.4 29.76 16.00 0.0 0 0.00 0.00 1.71 0.000
1/21/2017 4:46:36a 254 0 1 29 81 71.0 43.4 29.76 16.00 0.0 0 0.00 0.00 1.71 0.000
1/21/2017 4:47:36a 254 0 1 29 81 71.0 43.4 29.76 16.00 0.0 0 0.00 0.00 1.70 0.000
1/21/2017 4:48:36a 253 0 1 29 81 71.0 43.4 29.76 16.00 0.0 0 0.00 0.00 1.70 0.000
1/21/2017 4:49:36a 254 0 1 29 81 71.0 43.4 29.76 16.00 0.0 0 0.00 0.00 1.70 0.000
1/21/2017 4:50:36a 254 0 1 29 81 71.0 43.4 29.76 16.00 0.0 0 0.00 0.00 1.70 0.000
1/21/2017 4:51:36a 254 0 1 29 81 71.0 43.4 29.76 16.00 0.0 0 0.00 0.00 1.70 0.000
1/21/2017 4:52:37a 254 0 1 29 81 70.8 43.4 29.76 16.00 0.0 0 0.00 0.00 1.70 0.000
1/21/2017 4:53:37a 254 0 1 29 81 70.8 43.4 29.76 16.00 0.0 0 0.00 0.00 1.70 0.000
1/21/2017 4:54:37a 254 0 1 29 81 70.8 43.4 29.76 16.00 0.0 0 0.00 0.00 1.70 0.000
1/21/2017 4:55:37a 254 0 1 29 81 70.8 43.4 29.76 16.00 0.0 0 0.00 0.00 1.70 0.000
1/21/2017 4:56:40a 253 0 1 29 81 70.8 43.4 29.76 16.00 0.0 0 0.00 0.00 1.70 0.000
1/21/2017 4:57:40a 258 0 2 29 81 70.8 43.4 29.76 16.00 0.0 0 0.00 0.00 1.70 0.000
1/21/2017 4:58:40a 257 0 2 29 81 70.8 43.4 29.76 16.00 0.0 0 0.00 0.00 1.70 0.000
1/21/2017 4:59:40a 258 0 2 29 81 70.8 43.4 29.76 16.00 0.0 0 0.00 0.00 1.70 0.000
1/21/2017 5:00:46a 258 0 2 29 81 70.8 43.4 29.76 16.00 0.0 0 0.00 0.00 1.70 0.000
1/21/2017 5:01:49a 258 0 0 29 81 70.8 43.4 29.76 16.00 0.0 0 0.00 0.00 1.70 0.000
1/21/2017 5:02:52a 256 3 3 29 81 70.8 43.4 29.76 16.00 0.0 0 0.00 0.00 1.69 0.000
1/21/2017 5:03:52a 254 3 5 29 81 70.8 43.4 29.76 16.00 0.0 0 0.00 0.00 1.69 0.000
1/21/2017 5:04:52a 253 2 5 29 81 70.8 43.4 29.76 16.00 0.0 0 0.00 0.00 1.69 0.000
1/21/2017 5:05:52a 254 3 5 29 81 70.8 43.4 29.76 16.00 0.0 0 0.00 0.00 1.69 0.000
1/21/2017 5:06:52a 254 2 5 29 81 70.8 43.3 29.76 16.00 0.0 0 0.00 0.00 1.69 0.000
1/21/2017 5:07:53a 247 4 5 29 81 70.8 43.3 29.76 16.00 0.0 0 0.00 0.00 1.69 0.000
1/21/2017 5:08:53a 246 3 5 29 81 70.8 43.3 29.76 16.00 0.0 0 0.00 0.00 1.69 0.000
1/21/2017 5:09:53a 245 4 5 29 81 70.8 43.3 29.76 16.00 0.0 0 0.00 0.00 1.69 0.000
1/21/2017 5:10:53a 245 3 5 29 81 70.8 43.2 29.76 16.00 0.0 0 0.00 0.00 1.69 0.000
1/21/2017 5:11:53a 245 2 5 29 81 70.8 43.2 29.76 16.00 0.0 0 0.00 0.00 1.69 0.000
1/21/2017 5:12:56a 245 1 5 29 81 70.8 43.2 29.76 16.00 0.0 0 0.00 0.00 1.69 0.000
1/21/2017 5:13:59a 245 0 5 29 81 70.8 43.2 29.76 16.00 0.0 0 0.00 0.00 1.69 0.000
1/21/2017 5:14:59a 245 3 5 29 81 70.8 43.2 29.76 16.00 0.0 0 0.00 0.00 1.69 0.000
1/21/2017 5:16:02a 239 4 5 29 81 70.8 43.2 29.76 16.00 0.0 0 0.00 0.00 1.69 0.000
1/21/2017 5:17:02a 231 4 4 29 81 70.8 43.1 29.77 16.00 0.0 0 0.00 0.00 1.69 0.000
1/21/2017 5:18:02a 223 3 4 29 81 70.8 43.1 29.77 16.00 0.0 0 0.00 0.00 1.69 0.000
1/21/2017 5:19:05a 218 3 5 29 81 70.8 43.1 29.77 16.00 0.0 0 0.00 0.00 1.69 0.000
1/21/2017 5:20:05a 218 3 5 29 81 70.8 43.0 29.77 16.00 0.0 0 0.00 0.00 1.69 0.000
1/21/2017 5:21:11a 218 1 5 29 81 70.8 43.0 29.77 16.00 0.0 0 0.00 0.00 1.69 0.000
1/21/2017 5:22:12a 218 2 5 29 81 70.8 43.0 29.77 16.00 0.0 0 0.00 0.00 1.69 0.000
1/21/2017 5:23:12a 218 2 5 29 81 70.8 43.0 29.77 16.00 0.0 0 0.00 0.00 1.69 0.000
1/21/2017 5:24:12a 218 1 5 29 81 70.8 42.9 29.77 16.00 0.0 0 0.00 0.00 1.69 0.000
1/21/2017 5:25:12a 218 1 5 29 81 70.8 42.9 29.77 16.00 0.0 0 0.00 0.00 1.69 0.000
1/21/2017 5:26:15a 215 2 5 29 81 70.8 42.9 29.77 16.00 0.0 0 0.00 0.00 1.69 0.000
1/21/2017 5:27:15a 215 2 5 29 81 70.8 42.9 29.78 16.00 0.0 0 0.00 0.00 1.69 0.000
1/21/2017 5:28:15a 215 1 5 29 81 70.8 42.9 29.78 16.00 0.0 0 0.00 0.00 1.69 0.000
1/21/2017 5:29:21a 216 1 5 29 81 70.6 42.9 29.78 16.00 0.0 0 0.00 0.00 1.69 0.000
1/21/2017 5:30:21a 216 0 5 29 81 70.6 42.8 29.78 16.00 0.0 0 0.00 0.00 1.69 0.000
1/21/2017 5:31:21a 215 1 5 29 81 70.6 42.8 29.78 16.00 0.0 0 0.00 0.00 1.69 0.000
1/21/2017 5:32:21a 215 0 1 29 81 70.6 42.8 29.78 16.00 0.0 0 0.00 0.00 1.68 0.000
1/21/2017 5:33:21a 215 2 2 29 81 70.6 42.8 29.78 16.00 0.0 0 0.00 0.00 1.68 0.000
1/21/2017 5:34:21a 215 2 2 29 81 70.6 42.8 29.78 16.00 0.0 0 0.00 0.00 1.68 0.000
1/21/2017 5:35:22a 215 0 2 29 81 70.6 42.8 29.78 16.00 0.0 0 0.00 0.00 1.68 0.000
1/21/2017 5:36:22a 215 0 2 29 81 70.6 42.8 29.78 16.00 0.0 0 0.00 0.00 1.68 0.000
1/21/2017 5:37:22a 215 2 3 29 81 70.6 42.8 29.78 16.00 0.0 0 0.00 0.00 1.68 0.000
1/21/2017 5:38:22a 215 2 3 29 81 70.6 42.8 29.78 16.00 0.0 0 0.00 0.00 1.68 0.000
1/21/2017 5:39:22a 184 4 5 29 81 70.6 42.7 29.78 16.00 0.0 0 0.00 0.00 1.68 0.000
1/21/2017 5:40:22a 185 3 5 29 81 70.6 42.7 29.78 16.00 0.0 0 0.00 0.00 1.68 0.000
1/21/2017 5:41:22a 184 4 5 29 81 70.6 42.7 29.78 16.00 0.0 0 0.00 0.00 1.68 0.000
1/21/2017 5:42:22a 184 2 5 29 81 70.6 42.7 29.78 16.00 0.0 0 0.00 0.00 1.68 0.000
1/21/2017 5:43:22a 184 2 5 29 81 70.6 42.7 29.78 16.00 0.0 0 0.00 0.00 1.68 0.000
1/21/2017 5:45:22a 184 1 5 29 81 70.6 42.7 29.78 16.00 0.0 0 0.00 0.00 1.68 0.000
1/21/2017 5:46:22a 184 0 5 29 81 70.6 42.7 29.79 16.00 0.0 0 0.00 0.00 1.68 0.000
1/21/2017 5:47:23a 184 0 1 29 81 70.6 42.7 29.79 16.00 0.0 0 0.00 0.00 1.68 0.000
1/21/2017 5:48:23a 184 0 1 29 81 70.6 42.7 29.79 16.00 0.0 0 0.00 0.00 1.68 0.000
1/21/2017 5:49:26a 184 0 1 29 81 70.6 42.7 29.79 16.00 0.0 0 0.00 0.00 1.68 0.000
1/21/2017 5:50:29a 184 0 1 29 81 70.6 42.6 29.79 16.00 0.0 0 0.00 0.00 1.68 0.000
1/21/2017 5:51:32a 184 1 2 29 81 70.6 42.6 29.79 16.00 0.0 0 0.00 0.00 1.68 0.000
1/21/2017 5:52:38a 184 2 3 29 81 70.6 42.6 29.79 16.00 0.0 0 0.00 0.00 1.68 0.000
1/21/2017 5:53:38a 184 2 3 29 81 70.6 42.6 29.79 16.00 0.0 0 0.00 0.00 1.68 0.000
1/21/2017 5:54:38a 184 1 3 29 81 70.6 42.6 29.79 16.00 0.0 0 0.00 0.00 1.68 0.000
1/21/2017 5:55:38a 184 1 3 29 81 70.6 42.6 29.80 16.00 0.0 0 0.00 0.00 1.68 0.000
1/21/2017 5:56:38a 184 1 3 29 82 70.6 42.6 29.80 16.00 0.0 0 0.00 0.00 1.68 0.000
1/21/2017 5:57:38a 184 2 3 29 82 70.6 42.6 29.80 16.00 0.0 0 0.00 0.00 1.68 0.000
1/21/2017 5:58:38a 208 4 4 29 82 70.6 42.5 29.80 16.00 0.0 0 0.00 0.00 1.68 0.000
1/21/2017 5:59:38a 218 1 5 29 82 70.6 42.5 29.80 16.00 0.0 0 0.00 0.00 1.68 0.000
1/21/2017 6:00:38a 218 1 5 29 82 70.6 42.5 29.80 16.00 0.0 0 0.00 0.00 1.68 0.000
1/21/2017 6:01:38a 218 1 2 29 82 70.5 42.5 29.80 16.00 0.0 0 0.00 0.00 1.68 0.000
1/21/2017 6:02:38a 218 0 2 29 82 70.5 42.5 29.80 16.00 0.0 0 0.00 0.00 1.67 0.000
1/21/2017 6:03:42a 218 0 2 29 82 70.5 42.5 29.81 16.00 0.0 0 0.00 0.00 1.67 0.000
1/21/2017 6:04:42a 218 0 2 29 82 70.5 42.5 29.81 16.00 0.0 0 0.00 0.00 1.67 0.000
1/21/2017 6:05:45a 233 2 2 29 82 70.5 42.5 29.81 16.00 0.0 0 0.00 0.00 1.67 0.000
1/21/2017 6:06:45a 233 1 2 29 82 70.5 42.5 29.82 16.00 0.0 0 0.00 0.00 1.67 0.000
1/21/2017 6:07:45a 235 0 3 29 82 70.5 42.4 29.82 16.00 0.0 0 0.00 0.00 1.67 0.000
1/21/2017 6:08:48a 235 1 3 29 82 70.5 42.4 29.82 16.00 0.0 0 0.00 0.00 1.67 0.000
1/21/2017 6:09:48a 234 0 3 29 82 70.5 42.4 29.82 16.00 0.0 0 0.00 0.00 1.67 0.000
1/21/2017 6:10:48a 234 3 3 29 82 70.5 42.4 29.82 16.00 0.0 0 0.00 0.00 1.67 0.000
1/21/2017 6:11:48a 235 1 3 29 82 70.5 42.4 29.82 16.00 0.0 0 0.00 0.00 1.67 0.000
1/21/2017 6:12:48a 235 0 3 29 82 70.5 42.4 29.82 16.00 0.0 0 0.00 0.00 1.67 0.000
1/21/2017 6:13:48a 235 0 3 29 82 70.5 42.3 29.82 16.00 0.0 0 0.00 0.00 1.67 0.000
1/21/2017 6:14:48a 235 1 3 29 82 70.5 42.3 29.82 16.00 0.0 0 0.00 0.00 1.67 0.000
1/21/2017 6:15:48a 235 0 3 29 82 70.5 42.3 29.82 16.00 0.0 0 0.00 0.00 1.67 0.000
1/21/2017 6:16:48a 234 0 0 29 82 70.5 42.3 29.83 16.00 0.0 0 0.00 0.00 1.67 0.000
1/21/2017 6:17:48a 235 0 1 28 82 70.5 42.3 29.82 16.00 0.0 0 0.00 0.00 1.66 0.000
1/21/2017 6:18:51a 235 0 1 28 82 70.5 42.3 29.82 16.00 0.0 0 0.00 0.00 1.66 0.000
1/21/2017 6:19:51a 234 0 1 28 82 70.5 42.3 29.83 16.00 0.0 0 0.00 0.00 1.66 0.000
1/21/2017 6:20:51a 234 0 1 28 82 70.5 42.3 29.83 16.00 0.0 0 0.00 0.00 1.66 0.000
1/21/2017 6:21:52a 234 2 2 28 82 70.5 42.3 29.83 16.00 0.0 0 0.00 0.00 1.66 0.000
1/21/2017 6:22:52a 216 2 4 28 82 70.5 42.3 29.83 16.00 0.0 0 0.00 0.00 1.66 0.000
1/21/2017 6:23:52a 216 2 4 28 82 70.5 42.2 29.83 16.00 0.0 0 0.00 0.00 1.66 0.000
1/21/2017 6:24:55a 216 2 4 28 82 70.5 42.2 29.83 16.00 0.0 0 0.00 0.00 1.66 0.000
1/21/2017 6:25:55a 216 4 4 28 82 70.5 42.2 29.83 16.00 0.0 0 0.00 0.00 1.66 0.000
1/21/2017 6:26:58a 216 3 4 28 82 70.5 42.2 29.83 16.00 0.0 0 0.00 0.00 1.66 0.000
1/21/2017 6:27:58a 213 3 5 28 82 70.5 42.2 29.83 16.00 0.0 0 0.00 0.00 1.66 0.000
1/21/2017 6:28:58a 202 5 6 28 82 70.5 42.2 29.83 16.00 0.0 0 0.00 0.00 1.66 0.000
1/21/2017 6:29:58a 198 4 6 28 82 70.5 42.2 29.83 16.00 0.0 0 0.00 0.00 1.66 0.000
1/21/2017 6:30:58a 195 4 6 28 82 70.5 42.2 29.83 16.00 0.0 0 0.00 0.00 1.66 0.000
1/21/2017 6:31:58a 195 4 5 28 82 70.5 42.2 29.83 16.00 0.0 0 0.00 0.00 1.66 0.000
1/21/2017 6:32:58a 193 5 6 28 82 70.5 42.2 29.83 16.00 0.0 0 0.00 0.00 1.66 0.000
1/21/2017 6:33:58a 193 3 6 28 82 70.5 42.2 29.83 16.00 0.0 0 0.00 0.00 1.66 0.000
1/21/2017 6:34:58a 193 4 6 28 82 70.3 42.2 29.84 16.00 0.0 0 0.00 0.00 1.66 0.000
1/21/2017 6:35:59a 193 3 6 28 82 70.3 42.2 29.84 16.00 0.0 0 0.00 0.00 1.66 0.000
1/21/2017 6:36:59a 174 5 6 28 82 70.3 42.3 29.84 16.00 0.0 0 0.00 0.00 1.66 0.000
1/21/2017 6:37:59a 173 3 6 28 82 70.3 42.3 29.84 16.00 0.0 0 0.00 0.00 1.66 0.000
1/21/2017 6:38:59a 181 3 6 28 82 70.3 42.3 29.84 16.00 0.0 0 0.00 0.00 1.66 0.000
1/21/2017 6:39:59a 179 4 6 28 82 70.3 42.3 29.84 16.00 0.0 0 0.00 0.00 1.66 0.000
1/21/2017 6:40:59a 179 2 6 28 82 70.3 42.3 29.84 16.00 0.0 0 0.00 0.00 1.66 0.000
1/21/2017 6:41:59a 179 2 6 28 83 70.3 42.3 29.84 16.00 0.0 0 0.00 0.00 1.66 0.000
1/21/2017 6:42:59a 179 2 6 28 83 70.3 42.3 29.84 16.00 0.0 0 0.00 0.00 1.66 0.000
1/21/2017 6:43:59a 179 2 6 28 83 70.3 42.3 29.84 16.00 0.0 0 0.00 0.00 1.66 0.000
1/21/2017 6:45:02a 179 2 6 28 83 70.3 42.3 29.84 16.00 0.0 0 0.00 0.00 1.66 0.000
1/21/2017 6:46:05a 179 3 6 28 83 70.3 42.3 29.84 16.00 0.0 0 0.00 0.00 1.66 0.000
1/21/2017 6:47:05a 232 3 3 28 83 70.3 42.3 29.84 16.00 0.0 0 0.00 0.00 1.66 0.000
1/21/2017 6:48:05a 232 3 3 28 83 70.3 42.3 29.84 16.00 0.0 0 0.00 0.00 1.66 0.000
1/21/2017 6:49:05a 234 2 3 28 83 70.3 42.2 29.85 16.00 0.0 0 0.00 0.00 1.66 0.000
1/21/2017 6:50:05a 237 2 3 28 83 70.3 42.2 29.85 16.00 0.0 0 0.00 0.00 1.66 0.000
1/21/2017 6:51:05a 237 2 3 28 83 70.3 42.2 29.85 16.00 0.0 0 0.00 0.00 1.66 0.000
1/21/2017 6:52:05a 237 3 3 28 83 70.3 42.2 29.85 16.00 0.0 0 0.00 0.00 1.66 0.000
1/21/2017 6:53:05a 237 0 3 28 83 70.3 42.2 29.85 16.00 0.0 0 0.00 0.00 1.66 0.000
1/21/2017 6:54:05a 237 1 3 28 83 70.3 42.1 29.85 16.00 0.0 0 0.00 0.00 1.66 0.000
1/21/2017 6:55:06a 237 0 3 28 83 70.3 42.1 29.85 16.00 0.0 0 0.00 0.00 1.66 0.000
1/21/2017 6:56:09a 236 3 3 28 83 70.3 42.1 29.85 16.00 0.0 5 0.00 0.00 1.66 0.000
1/21/2017 6:57:12a 236 3 3 28 83 70.1 42.1 29.85 16.00 0.0 5 0.00 0.00 1.66 0.000
1/21/2017 6:58:15a 235 2 4 28 83 70.1 42.1 29.85 16.00 0.0 5 0.00 0.00 1.66 0.000
1/21/2017 6:59:15a 236 1 4 28 83 70.1 42.1 29.85 16.00 0.0 5 0.00 0.00 1.66 0.000
1/21/2017 7:00:15a 236 1 4 28 83 70.1 42.1 29.85 16.00 0.0 7 0.00 0.00 1.66 0.000
1/21/2017 7:01:15a 235 0 4 28 83 70.1 42.1 29.85 16.00 0.0 7 0.00 0.00 1.66 0.000
1/21/2017 7:02:18a 236 0 1 28 83 70.1 42.0 29.85 16.00 0.0 7 0.00 0.00 1.66 0.000
1/21/2017 7:03:18a 236 2 2 28 83 70.1 42.0 29.86 16.00 0.0 7 0.00 0.00 1.66 0.000
1/21/2017 7:04:18a 236 2 2 28 83 70.1 42.0 29.86 16.00 0.0 9 0.00 0.00 1.66 0.000
1/21/2017 7:05:18a 235 1 2 28 83 70.1 42.0 29.86 16.00 0.0 9 0.00 0.00 1.66 0.000
1/21/2017 7:06:18a 235 0 2 28 83 70.1 42.0 29.86 16.00 0.0 11 0.00 0.00 1.66 0.000
1/21/2017 7:07:18a 235 0 2 28 83 70.1 41.9 29.86 16.00 0.0 11 0.00 0.00 1.66 0.000
1/21/2017 7:08:18a 236 0 2 28 83 70.1 41.9 29.86 16.00 0.0 11 0.00 0.00 1.66 0.000
1/21/2017 7:09:19a 236 0 2 28 83 70.1 41.9 29.86 16.00 0.0 12 0.00 0.00 1.66 0.000
1/21/2017 7:10:19a 236 0 2 28 83 70.1 41.9 29.86 16.00 0.0 14 0.00 0.00 1.66 0.000
1/21/2017 7:11:19a 236 0 2 28 83 69.9 41.8 29.86 16.00 0.0 14 0.00 0.00 1.66 0.000
1/21/2017 7:12:19a 236 1 2 28 83 69.9 41.9 29.86 16.00 0.0 21 0.00 0.00 1.66 0.000
1/21/2017 7:13:19a 235 2 2 28 83 69.9 41.8 29.86 16.00 0.0 23 0.00 0.00 1.66 0.000
1/21/2017 7:14:22a 235 1 2 28 83 69.9 41.8 29.86 16.00 0.0 25 0.00 0.00 1.66 0.000
1/21/2017 7:15:22a 237 1 2 28 83 69.9 41.8 29.86 16.00 0.0 26 0.00 0.00 1.66 0.000
1/21/2017 7:16:22a 237 0 2 28 83 69.9 41.8 29.86 16.00 0.0 28 0.00 0.00 1.66 0.000
1/21/2017 7:17:22a 237 0 0 28 83 69.9 41.8 29.87 16.00 0.0 30 0.00 0.00 1.64 0.000
1/21/2017 7:18:31a 237 1 1 28 83 69.9 41.8 29.87 16.00 0.0 33 0.00 0.00 1.64 0.000
1/21/2017 7:19:32a 237 1 1 28 83 69.9 41.8 29.87 16.00 0.0 35 0.00 0.00 1.64 0.000
1/21/2017 7:20:35a 237 2 3 28 83 69.9 41.8 29.87 16.00 0.0 37 0.00 0.00 1.64 0.000
1/21/2017 7:21:35a 237 0 3 28 83 69.9 41.8 29.87 16.00 0.0 39 0.00 0.00 1.64 0.000
1/21/2017 7:22:35a 237 0 3 28 83 69.9 41.8 29.87 16.00 0.0 44 0.00 0.00 1.64 0.000
1/21/2017 7:23:41a 237 0 3 28 83 69.9 41.8 29.87 16.00 0.0 46 0.00 0.00 1.64 0.000
1/21/2017 7:24:41a 237 0 3 28 83 69.9 41.8 29.87 16.00 0.0 47 0.00 0.00 1.64 0.000
1/21/2017 7:25:41a 236 0 3 28 83 69.9 41.8 29.87 16.00 0.0 49 0.00 0.00 1.64 0.000
1/21/2017 7:26:41a 235 1 3 28 83 69.9 41.8 29.87 16.00 0.0 51 0.00 0.00 1.64 0.000
1/21/2017 7:27:41a 235 0 3 28 83 69.9 41.8 29.87 16.00 0.0 54 0.00 0.00 1.64 0.000
1/21/2017 7:28:41a 235 0 3 28 83 69.9 41.8 29.87 16.00 0.0 54 0.00 0.00 1.64 0.000
1/21/2017 7:29:44a 235 0 3 28 83 69.9 41.8 29.87 16.00 0.0 62 0.00 0.00 1.64 0.000
1/21/2017 7:30:47a 235 0 3 28 83 69.9 41.8 29.87 16.00 0.0 65 0.00 0.00 1.64 0.000
1/21/2017 7:31:47a 235 1 1 28 83 69.9 41.8 29.87 16.00 0.0 69 0.00 0.00 1.61 0.000
1/21/2017 7:32:47a 235 0 2 28 83 69.8 41.8 29.88 16.00 0.0 76 0.00 0.00 1.61 0.000
1/21/2017 7:33:47a 235 1 2 28 83 69.8 41.8 29.88 16.00 0.0 79 0.00 0.00 1.61 0.000
1/21/2017 7:34:51a 235 0 2 28 83 69.8 41.9 29.88 16.00 0.0 83 0.00 0.00 1.61 0.000
1/21/2017 7:35:51a 235 0 2 28 83 69.8 41.9 29.88 16.00 0.0 84 0.00 0.00 1.61 0.000
1/21/2017 7:36:54a 235 0 2 28 83 69.8 41.9 29.88 16.00 0.0 88 0.00 0.00 1.61 0.000
1/21/2017 7:38:00a 235 0 2 28 83 69.8 41.9 29.88 16.00 0.0 93 0.00 0.00 1.61 0.000
1/21/2017 7:39:03a 235 0 2 28 83 69.8 41.9 29.88 16.00 0.0 95 0.00 0.00 1.61 0.000
1/21/2017 7:40:03a 235 0 2 28 83 69.8 42.0 29.88 16.00 0.0 95 0.00 0.00 1.61 0.000
1/21/2017 7:41:03a 235 0 2 28 84 69.8 42.0 29.88 16.00 0.0 98 0.00 0.00 1.61 0.000
1/21/2017 7:42:03a 235 1 2 28 84 69.8 42.1 29.88 16.00 0.0 104 0.00 0.00 1.61 0.000
1/21/2017 7:43:03a 235 0 2 28 84 69.8 42.1 29.88 16.00 0.0 123 0.00 0.00 1.61 0.000
1/21/2017 7:44:03a 235 0 2 28 84 69.8 42.1 29.88 16.00 0.0 134 0.00 0.00 1.61 0.000
1/21/2017 7:45:06a 235 0 2 28 84 69.8 42.2 29.88 16.00 0.0 137 0.00 0.00 1.61 0.000
1/21/2017 7:46:07a 235 0 2 28 84 69.8 42.2 29.88 16.00 0.0 137 0.00 0.00 1.61 0.000
1/21/2017 7:47:07a 235 0 0 28 84 69.8 42.3 29.89 16.00 0.0 135 0.00 0.00 1.56 0.000
1/21/2017 7:48:07a 235 3 3 28 84 69.8 42.3 29.89 16.00 0.0 128 0.00 0.00 1.56 0.000
1/21/2017 7:49:10a 235 2 4 28 84 69.8 42.5 29.89 16.00 0.0 127 0.00 0.00 1.56 0.000
1/21/2017 7:50:10a 235 0 4 28 84 69.8 42.6 29.89 16.00 0.0 69 0.00 0.00 1.56 0.000
1/21/2017 7:51:13a 235 3 4 28 84 69.8 42.7 29.88 16.00 0.0 97 0.00 0.00 1.56 0.000
1/21/2017 7:52:13a 222 4 5 28 84 69.8 42.8 29.88 16.00 0.0 97 0.00 0.00 1.56 0.000
1/21/2017 7:53:13a 222 4 5 28 84 69.8 42.9 29.89 16.00 0.0 54 0.00 0.00 1.56 0.000
1/21/2017 7:54:13a 219 5 5 28 84 69.8 42.9 29.89 16.00 0.0 54 0.00 0.00 1.56 0.000
1/21/2017 7:55:16a 222 3 5 28 84 69.8 43.0 29.89 16.00 0.0 77 0.00 0.00 1.56 0.000
1/21/2017 7:56:16a 222 2 5 28 84 69.8 43.1 29.89 16.00 0.0 88 0.00 0.00 1.56 0.000
1/21/2017 7:57:16a 222 3 5 28 84 69.6 43.2 29.89 16.00 0.0 128 0.00 0.00 1.56 0.000
1/21/2017 7:58:16a 222 3 5 28 84 69.6 43.2 29.89 16.00 0.0 79 0.00 0.00 1.56 0.000
1/21/2017 7:59:17a 225 4 5 28 84 69.6 43.2 29.89 16.00 0.0 141 0.00 0.00 1.56 0.000
1/21/2017 8:00:20a 227 4 5 28 84 69.6 43.3 29.88 16.00 0.0 155 0.00 0.00 1.56 0.000
1/21/2017 8:01:20a 227 3 5 28 84 69.6 43.4 29.88 16.00 0.0 160 0.00 0.00 1.56 0.000
1/21/2017 8:02:20a 226 3 4 28 84 69.6 43.4 29.89 16.00 0.0 163 0.00 0.00 1.49 0.000
1/21/2017 8:03:20a 226 2 4 28 84 69.6 43.4 29.89 16.00 0.0 165 0.00 0.00 1.49 0.000
1/21/2017 8:04:20a 227 2 4 28 84 69.6 43.5 29.89 16.00 0.0 169 0.00 0.00 1.49 0.000
1/21/2017 8:05:20a 227 1 4 28 84 69.6 43.5 29.89 16.00 0.0 171 0.00 0.00 1.49 0.000
1/21/2017 8:06:20a 227 1 4 28 84 69.6 43.6 29.89 16.00 0.0 171 0.00 0.00 1.49 0.000
1/21/2017 8:07:20a 227 0 4 28 84 69.6 43.6 29.90 16.00 0.0 172 0.00 0.00 1.49 0.000
1/21/2017 8:08:23a 227 2 4 28 84 69.6 43.7 29.90 16.00 0.0 174 0.00 0.00 1.49 0.000
1/21/2017 8:09:23a 226 2 4 28 84 69.6 43.7 29.89 16.00 0.0 176 0.00 0.00 1.49 0.000
1/21/2017 8:10:23a 226 1 4 28 84 69.6 43.8 29.89 16.00 0.0 179 0.00 0.00 1.49 0.000
1/21/2017 8:11:23a 226 2 4 28 84 69.6 43.9 29.90 16.00 0.0 179 0.00 0.00 1.49 0.000
1/21/2017 8:12:27a 242 2 4 28 84 69.6 44.0 29.90 16.00 0.0 179 0.00 0.00 1.49 0.000
1/21/2017 8:13:27a 242 5 5 28 84 69.4 44.0 29.90 16.00 0.0 179 0.00 0.00 1.49 0.000
1/21/2017 8:14:33a 216 3 6 28 84 69.4 44.1 29.90 16.00 0.0 181 0.00 0.00 1.49 0.000
1/21/2017 8:15:33a 227 3 6 28 84 69.4 44.2 29.90 16.00 0.0 185 0.00 0.00 1.49 0.000
1/21/2017 8:16:33a 249 4 4 28 84 69.4 44.3 29.90 16.00 0.0 188 0.00 0.00 1.45 0.000
1/21/2017 8:17:33a 264 5 5 28 84 69.4 44.3 29.90 16.00 0.0 188 0.00 0.00 1.45 0.000
1/21/2017 8:18:33a 266 3 5 28 84 69.4 44.4 29.90 16.00 0.0 188 0.00 0.00 1.45 0.000
1/21/2017 8:19:33a 268 6 6 28 84 69.4 44.4 29.91 16.00 0.0 193 0.00 0.00 1.45 0.000
1/21/2017 8:20:33a 278 3 6 28 84 69.4 44.5 29.90 16.00 0.0 200 0.00 0.00 1.45 0.000
1/21/2017 8:21:33a 277 4 6 28 84 69.4 44.5 29.90 16.00 0.5 209 0.00 0.00 1.45 0.000
1/21/2017 8:22:33a 273 3 6 28 83 69.4 44.6 29.90 16.00 0.5 213 0.00 0.00 1.45 0.000
1/21/2017 8:23:33a 269 3 6 28 83 69.4 44.6 29.90 16.00 0.5 214 0.00 0.00 1.45 0.000
1/21/2017 8:24:36a 267 4 6 28 84 69.4 44.6 29.91 16.00 0.5 218 0.00 0.00 1.45 0.000
1/21/2017 8:25:39a 267 3 6 28 83 69.4 44.7 29.91 16.00 0.5 220 0.00 0.00 1.45 0.000
1/21/2017 8:26:40a 267 3 6 28 83 69.4 44.7 29.91 16.00 0.5 227 0.00 0.00 1.45 0.000
1/21/2017 8:27:43a 260 4 6 28 83 69.4 44.8 29.91 16.00 0.5 230 0.00 0.00 1.45 0.000
1/21/2017 8:28:46a 258 3 6 28 83 69.4 44.8 29.91 16.00 0.5 232 0.00 0.00 1.45 0.000
1/21/2017 8:29:46a 259 3 6 28 83 69.4 44.9 29.91 16.00 0.5 236 0.00 0.00 1.45 0.000
1/21/2017 8:30:46a 259 3 6 28 83 69.4 44.9 29.91 16.00 0.5 239 0.00 0.00 1.45 0.000
1/21/2017 8:31:46a 269 6 6 28 83 69.4 45.0 29.91 16.00 0.5 244 0.00 0.00 1.44 0.000
1/21/2017 8:32:46a 269 1 6 28 83 69.4 45.0 29.91 16.00 0.6 248 0.00 0.00 1.44 0.000
1/21/2017 8:33:49a 264 3 6 28 83 69.4 45.0 29.91 16.00 0.6 250 0.00 0.00 1.44 0.000
1/21/2017 8:34:49a 221 4 7 28 83 69.4 45.1 29.91 16.00 0.6 251 0.00 0.00 1.44 0.000
1/21/2017 8:35:52a 249 5 7 28 83 69.4 45.1 29.91 16.00 0.6 251 0.00 0.00 1.44 0.000
1/21/2017 8:36:52a 234 7 7 28 83 69.4 45.1 29.91 16.00 0.6 253 0.00 0.00 1.44 0.000
1/21/2017 8:37:52a 238 3 7 28 83 69.4 45.2 29.91 16.00 0.6 257 0.00 0.00 1.44 0.000
1/21/2017 8:38:52a 222 5 7 28 83 69.3 45.2 29.92 16.00 0.6 260 0.00 0.00 1.44 0.000
1/21/2017 8:39:53a 284 2 7 28 82 69.3 45.3 29.91 16.00 0.6 251 0.00 0.00 1.44 0.000
1/21/2017 8:40:53a 265 3 7 28 82 69.3 45.3 29.92 16.00 0.6 160 0.00 0.00 1.44 0.000
1/21/2017 8:41:56a 283 4 10 28 82 69.3 45.3 29.92 16.00 0.5 121 0.00 0.00 1.44 0.000
1/21/2017 8:42:56a 272 5 10 28 82 69.3 45.3 29.92 16.00 0.6 121 0.00 0.00 1.44 0.000
1/21/2017 8:43:56a 249 1 10 28 82 69.3 45.3 29.92 16.00 0.5 121 0.00 0.00 1.44 0.000
1/21/2017 8:44:56a 216 7 10 28 82 69.3 45.3 29.92 16.00 0.6 91 0.00 0.00 1.44 0.000
1/21/2017 8:45:56a 220 4 10 28 82 69.3 45.2 29.92 16.00 0.6 162 0.00 0.00 1.44 0.000
1/21/2017 8:46:59a 233 2 4 28 82 69.3 45.2 29.93 16.00 0.6 160 0.00 0.00 1.42 0.000
1/21/2017 8:47:59a 223 3 6 28 82 69.3 45.3 29.93 16.00 0.7 160 0.00 0.00 1.42 0.000
1/21/2017 8:49:02a 231 3 6 28 82 69.3 45.2 29.93 16.00 0.7 316 0.00 0.00 1.42 0.000
1/21/2017 8:50:05a 237 3 6 28 82 69.3 45.3 29.93 16.00 0.6 316 0.00 0.00 1.42 0.000
1/21/2017 8:51:05a 237 5 6 28 82 69.3 45.3 29.94 16.00 0.6 105 0.00 0.00 1.42 0.000
1/21/2017 8:52:05a 237 3 6 28 82 69.3 45.3 29.94 16.00 0.7 204 0.00 0.00 1.42 0.000
1/21/2017 8:53:05a 237 2 6 28 82 69.3 45.3 29.94 16.00 0.8 316 0.00 0.00 1.42 0.000
1/21/2017 8:54:05a 229 0 6 28 82 69.3 45.3 29.94 16.00 0.8 320 0.00 0.00 1.42 0.000
1/21/2017 8:55:05a 229 1 6 28 82 69.3 45.3 29.94 16.00 0.8 327 0.00 0.00 1.42 0.000
1/21/2017 8:56:05a 206 5 6 28 82 69.3 45.3 29.94 16.00 0.8 334 0.00 0.00 1.42 0.000
1/21/2017 8:57:06a 218 3 6 28 82 69.3 45.4 29.94 16.00 0.8 339 0.00 0.00 1.42 0.000
1/21/2017 8:58:06a 222 5 9 28 82 69.3 45.5 29.94 16.00 0.8 336 0.00 0.00 1.42 0.000
1/21/2017 8:59:06a 233 4 9 28 82 69.3 45.5 29.94 16.00 0.8 336 0.00 0.00 1.42 0.000
1/21/2017 9:00:06a 223 6 9 28 81 69.3 45.6 29.94 16.00 0.8 341 0.00 0.00 1.42 0.000
1/21/2017 9:01:06a 218 4 9 28 81 69.3 45.6 29.94 16.00 0.9 345 0.00 0.00 1.42 0.000
1/21/2017 9:02:06a 216 4 4 28 81 69.3 45.7 29.94 16.00 0.9 346 0.00 0.00 1.42 0.000
1/21/2017 9:03:06a 225 8 10 28 81 69.3 45.7 29.94 16.00 0.9 350 0.00 0.00 1.38 0.000
1/21/2017 9:04:06a 219 4 10 28 81 69.3 45.8 29.94 16.00 0.9 357 0.00 0.00 1.38 0.000
1/21/2017 9:05:06a 219 4 10 28 81 69.3 45.8 29.94 16.00 0.9 343 0.00 0.00 1.38 0.000
1/21/2017 9:06:06a 223 3 10 28 81 69.3 45.9 29.94 16.00 0.9 380 0.00 0.00 1.38 0.000
1/21/2017 9:07:06a 213 4 10 28 81 69.3 45.9 29.95 16.00 0.9 390 0.00 0.00 1.38 0.000
1/21/2017 9:08:06a 214 4 10 28 80 69.3 45.9 29.95 16.00 0.7 390 0.00 0.00 1.38 0.000
1/21/2017 9:09:06a 235 2 10 28 80 69.3 45.9 29.95 16.00 0.9 390 0.00 0.00 1.38 0.000
1/21/2017 9:10:06a 239 3 10 28 80 69.3 46.0 29.95 16.00 0.9 390 0.00 0.00 1.38 0.000
1/21/2017 9:11:06a 203 5 10 28 80 69.3 46.0 29.95 16.00 0.9 285 0.00 0.00 1.38 0.000
1/21/2017 9:12:06a 206 0 10 28 80 69.3 46.0 29.96 16.00 0.9 287 0.00 0.00 1.38 0.000
1/21/2017 9:13:06a 206 0 10 28 80 69.3 46.1 29.96 16.00 0.8 287 0.00 0.00 1.38 0.000
1/21/2017 9:14:06a 225 0 10 28 80 69.3 46.1 29.96 16.00 1.0 287 0.00 0.00 1.38 0.000
1/21/2017 9:15:07a 225 0 10 28 80 69.3 46.2 29.96 16.00 1.0 287 0.00 0.00 1.38 0.000
1/21/2017 9:16:07a 260 2 10 28 80 69.3 46.3 29.96 16.00 1.0 425 0.00 0.00 1.38 0.000
1/21/2017 9:17:07a 260 2 3 28 80 69.3 46.3 29.96 16.00 1.1 408 0.00 0.00 1.38 0.000
1/21/2017 9:18:07a 217 6 7 28 80 69.3 46.4 29.96 16.00 1.1 397 0.00 0.00 1.36 0.000
1/21/2017 9:19:10a 215 5 7 28 80 69.3 46.4 29.96 16.00 1.1 397 0.00 0.00 1.36 0.000
1/21/2017 9:20:13a 237 9 9 28 80 69.3 46.5 29.96 16.00 1.1 388 0.00 0.00 1.36 0.000
1/21/2017 9:21:13a 213 6 10 28 80 69.3 46.5 29.95 16.00 1.1 390 0.00 0.00 1.36 0.000
1/21/2017 9:22:13a 202 7 10 28 80 69.3 46.5 29.95 16.00 1.1 388 0.00 0.00 1.36 0.000
1/21/2017 9:23:13a 193 9 10 28 79 69.3 46.6 29.95 16.00 1.1 388 0.00 0.00 1.36 0.000
1/21/2017 9:24:13a 204 9 11 28 79 69.3 46.5 29.95 16.00 1.1 392 0.00 0.00 1.36 0.000
1/21/2017 9:25:13a 201 5 11 28 79 69.3 46.5 29.95 16.00 1.1 397 0.00 0.00 1.36 0.000
1/21/2017 9:26:13a 204 6 11 28 78 69.3 46.5 29.95 16.00 1.2 396 0.00 0.00 1.36 0.000
1/21/2017 9:27:14a 227 5 11 28 78 69.3 46.6 29.95 16.00 1.2 401 0.00 0.00 1.36 0.000
1/21/2017 9:28:14a 192 6 11 28 78 69.3 46.6 29.95 16.00 1.2 403 0.00 0.00 1.36 0.000
1/21/2017 9:29:14a 208 5 11 28 78 69.3 46.6 29.95 16.00 1.2 403 0.00 0.00 1.36 0.000
1/21/2017 9:30:14a 205 7 11 28 78 69.3 46.6 29.95 16.00 1.2 404 0.00 0.00 1.36 0.000
1/21/2017 9:31:14a 244 6 12 28 78 69.3 46.6 29.95 16.00 1.2 404 0.00 0.00 1.36 0.000
1/21/2017 9:32:17a 229 10 12 28 78 69.3 46.6 29.95 16.00 1.2 411 0.00 0.00 1.32 0.000
1/21/2017 9:33:17a 233 5 12 28 77 69.3 46.7 29.95 16.00 1.2 418 0.00 0.00 1.32 0.000
1/21/2017 9:34:17a 269 4 12 28 77 69.3 46.7 29.95 16.00 1.3 422 0.00 0.00 1.32 0.000
1/21/2017 9:35:17a 268 4 12 28 77 69.3 46.8 29.94 16.00 1.3 420 0.00 0.00 1.32 0.000
1/21/2017 9:36:17a 250 7 12 28 77 69.4 46.8 29.94 16.00 1.3 422 0.00 0.00 1.32 0.000
1/21/2017 9:37:17a 225 5 12 28 77 69.3 46.8 29.94 16.00 1.3 424 0.00 0.00 1.32 0.000
1/21/2017 9:38:20a 258 2 12 28 77 69.3 46.9 29.94 16.00 1.3 427 0.00 0.00 1.32 0.000
1/21/2017 9:39:20a 287 7 12 28 77 69.3 47.0 29.94 16.00 1.3 425 0.00 0.00 1.32 0.000
1/21/2017 9:40:20a 254 5 12 28 77 69.3 47.0 29.94 16.00 1.3 429 0.00 0.00 1.32 0.000
1/21/2017 9:41:20a 259 4 12 28 77 69.3 47.1 29.94 16.00 1.3 431 0.00 0.00 1.32 0.000
1/21/2017 9:42:21a 232 9 12 28 77 69.3 47.2 29.94 16.00 1.3 432 0.00 0.00 1.32 0.000
1/21/2017 9:43:27a 237 6 12 28 77 69.3 47.2 29.95 16.00 1.3 436 0.00 0.00 1.32 0.000
1/21/2017 9:44:33a 265 4 12 28 77 69.3 47.3 29.95 16.00 1.4 441 0.00 0.00 1.32 0.000
1/21/2017 9:45:33a 241 6 12 28 76 69.3 47.3 29.95 16.00 1.4 441 0.00 0.00 1.32 0.000
1/21/2017 9:46:33a 222 5 6 28 76 69.3 47.3 29.95 16.00 1.4 441 0.00 0.00 1.28 0.000
1/21/2017 9:47:33a 260 4 8 28 76 69.3 47.4 29.96 16.00 1.4 443 0.00 0.00 1.28 0.000
1/21/2017 9:48:33a 277 7 9 28 76 69.3 47.5 29.96 16.00 1.4 450 0.00 0.00 1.28 0.000
1/21/2017 9:49:36a 254 6 9 28 76 69.3 47.5 29.96 16.00 1.4 455 0.00 0.00 1.28 0.000
1/21/2017 9:50:36a 281 5 9 28 76 69.3 47.6 29.96 16.00 1.4 457 0.00 0.00 1.28 0.000
1/21/2017 9:51:36a 246 8 12 28 76 69.3 47.6 29.96 16.00 1.4 457 0.00 0.00 1.28 0.000
1/21/2017 9:52:36a 269 7 12 28 76 69.3 47.6 29.96 16.00 1.5 461 0.00 0.00 1.28 0.000
1/21/2017 9:53:37a 275 6 12 28 76 69.3 47.6 29.96 16.00 1.5 464 0.00 0.00 1.28 0.000
1/21/2017 9:54:37a 239 7 12 28 76 69.3 47.7 29.97 16.00 1.5 469 0.00 0.00 1.28 0.000
1/21/2017 9:55:37a 245 6 12 28 75 69.3 47.7 29.97 16.00 1.5 473 0.00 0.00 1.28 0.000
1/21/2017 9:56:37a 242 4 12 28 75 69.3 47.7 29.97 16.00 1.5 473 0.00 0.00 1.28 0.000
1/21/2017 9:57:37a 289 3 12 28 75 69.3 47.8 29.97 16.00 1.5 476 0.00 0.00 1.28 0.000
1/21/2017 9:58:37a 234 9 12 28 75 69.3 47.8 29.97 16.00 1.5 480 0.00 0.00 1.28 0.000
1/21/2017 9:59:37a 264 7 12 28 75 69.3 47.9 29.97 16.00 1.5 483 0.00 0.00 1.28 0.000
1/21/2017 10:00:37a 226 6 12 28 75 69.3 47.9 29.97 16.00 1.6 485 0.00 0.00 1.28 0.000
1/21/2017 10:01:37a 281 4 4 28 75 69.3 47.9 29.97 16.00 1.6 487 0.00 0.00 1.28 0.000
1/21/2017 10:02:37a 260 4 7 28 75 69.3 47.9 29.97 16.00 1.6 490 0.00 0.00 1.26 0.000
1/21/2017 10:03:37a 265 6 10 28 75 69.3 48.0 29.97 16.00 1.6 492 0.00 0.00 1.26 0.000
1/21/2017 10:04:37a 260 4 10 28 75 69.3 48.0 29.97 16.00 1.6 496 0.00 0.00 1.26 0.000
1/21/2017 10:05:40a 271 6 10 28 75 69.3 48.1 29.97 16.00 1.6 497 0.00 0.00 1.26 0.000
1/21/2017 10:06:40a 262 6 11 28 75 69.3 48.1 29.97 16.00 1.7 501 0.00 0.00 1.26 0.000
1/21/2017 10:07:40a 253 7 11 28 75 69.3 48.1 29.98 16.00 1.7 503 0.00 0.00 1.26 0.000
1/21/2017 10:08:41a 247 2 11 28 74 69.3 48.1 29.98 16.00 1.7 504 0.00 0.00 1.26 0.000
1/21/2017 10:09:41a 277 4 11 28 74 69.3 48.2 29.98 16.00 1.7 508 0.00 0.00 1.26 0.000
1/21/2017 10:10:41a 267 4 11 28 74 69.3 48.2 29.98 16.00 1.7 508 0.00 0.00 1.26 0.000
1/21/2017 10:11:41a 271 7 11 29 74 69.3 48.3 29.98 16.00 1.7 513 0.00 0.00 1.26 0.000
1/21/2017 10:12:41a 265 6 11 29 74 69.3 48.3 29.98 16.00 1.7 517 0.00 0.00 1.26 0.000
1/21/2017 10:13:41a 283 9 11 29 74 69.3 48.4 29.98 16.00 1.7 517 0.00 0.00 1.26 0.000
1/21/2017 10:14:41a 215 4 11 29 74 69.3 48.4 29.98 16.00 1.5 246 0.00 0.00 1.26 0.000
1/21/2017 10:15:44a 270 5 11 29 74 69.3 48.4 29.98 16.00 1.2 246 0.00 0.00 1.26 0.000
1/21/2017 10:16:47a 254 4 4 29 73 69.3 48.4 29.98 16.00 1.7 246 0.00 0.00 1.23 0.000
1/21/2017 10:17:47a 260 2 6 29 73 69.3 48.4 29.98 16.00 1.7 246 0.00 0.00 1.23 0.000
1/21/2017 10:18:47a 264 7 11 29 73 69.3 48.5 29.98 16.00 1.8 536 0.00 0.00 1.23 0.000
1/21/2017 10:19:47a 256 6 11 29 73 69.3 48.5 29.98 16.00 1.8 529 0.00 0.00 1.23 0.000
1/21/2017 10:20:47a 256 4 11 29 73 69.3 48.5 29.98 16.00 1.8 529 0.00 0.00 1.23 0.000
1/21/2017 10:21:47a 268 7 11 29 73 69.3 48.6 29.98 16.00 1.8 527 0.00 0.00 1.23 0.000
1/21/2017 10:22:47a 260 4 11 29 73 69.3 48.6 29.98 16.00 1.8 533 0.00 0.00 1.23 0.000
1/21/2017 10:23:47a 274 7 11 29 73 69.3 48.6 29.98 16.00 1.9 534 0.00 0.00 1.23 0.000
1/21/2017 10:24:47a 281 8 11 29 73 69.3 48.6 29.98 16.00 1.9 538 0.00 0.00 1.23 0.000
1/21/2017 10:25:48a 257 5 11 29 73 69.3 48.7 29.98 16.00 1.9 541 0.00 0.00 1.23 0.000
1/21/2017 10:26:48a 284 6 11 29 73 69.3 48.7 29.98 16.00 1.9 547 0.00 0.00 1.23 0.000
1/21/2017 10:27:48a 259 6 11 29 73 69.3 48.8 29.98 16.00 1.8 547 0.00 0.00 1.23 0.000
1/21/2017 10:28:48a 276 7 11 29 73 69.3 48.8 29.98 16.00 1.7 547 0.00 0.00 1.23 0.000
1/21/2017 10:29:48a 241 7 11 29 72 69.3 48.8 29.98 16.00 1.9 568 0.00 0.00 1.23 0.000
1/21/2017 10:30:51a 259 7 11 29 72 69.3 48.8 29.98 16.00 2.0 573 0.00 0.00 1.23 0.000
1/21/2017 10:32:51a 260 7 11 29 72 69.3 48.8 29.98 16.00 2.0 571 0.00 0.00 1.21 0.000
1/21/2017 10:33:51a 249 7 11 29 72 69.3 48.8 29.98 16.00 2.0 564 0.00 0.00 1.21 0.000
1/21/2017 10:34:51a 268 6 11 29 72 69.3 48.8 29.98 16.00 2.0 561 0.00 0.00 1.21 0.000
1/21/2017 10:35:51a 260 6 12 29 72 69.3 48.9 29.98 16.00 2.0 563 0.00 0.00 1.21 0.000
1/21/2017 10:36:51a 281 3 12 29 72 69.3 49.0 29.99 16.00 2.0 564 0.00 0.00 1.21 0.000
1/21/2017 10:37:51a 254 4 12 29 71 69.3 49.0 29.99 16.00 2.1 570 0.00 0.00 1.21 0.000
1/21/2017 10:38:51a 270 10 12 29 71 69.3 49.0 29.99 16.00 2.1 573 0.00 0.00 1.21 0.000
1/21/2017 10:39:51a 319 7 12 29 71 69.3 49.1 29.99 16.00 2.1 578 0.00 0.00 1.21 0.000
1/21/2017 10:40:52a 269 10 12 29 71 69.3 49.2 29.98 16.00 2.1 584 0.00 0.00 1.21 0.000
1/21/2017 10:41:52a 285 12 12 29 71 69.3 49.3 29.98 16.00 2.1 584 0.00 0.00 1.21 0.000
1/21/2017 10:42:52a 295 11 14 29 71 69.3 49.3 29.99 16.00 2.1 587 0.00 0.00 1.21 0.000
1/21/2017 10:43:52a 279 4 14 29 71 69.3 49.4 29.99 16.00 2.1 592 0.00 0.00 1.21 0.000
1/21/2017 10:44:52a 304 4 14 29 71 69.3 49.4 29.99 16.00 2.1 603 0.00 0.00 1.21 0.000
1/21/2017 10:45:55a 262 7 14 29 71 69.3 49.5 29.99 16.00 2.2 610 0.00 0.00 1.21 0.000
1/21/2017 10:46:55a 318 6 8 29 71 69.3 49.5 29.99 16.00 2.2 612 0.00 0.00 1.19 0.000
1/21/2017 10:47:55a 290 4 9 29 71 69.3 49.6 29.99 16.00 2.2 624 0.00 0.00 1.19 0.000
1/21/2017 10:48:58a 257 8 9 29 71 69.3 49.7 29.99 16.00 2.2 633 0.00 0.00 1.19 0.000
1/21/2017 10:49:58a 283 9 9 29 71 69.3 49.7 29.99 16.00 2.2 633 0.00 0.00 1.19 0.000
1/21/2017 10:50:58a 274 6 10 29 70 69.3 49.8 29.99 16.00 2.2 649 0.00 0.00 1.19 0.000
1/21/2017 10:52:01a 279 3 10 29 70 69.3 49.8 29.99 16.00 1.8 649 0.00 0.00 1.19 0.000
1/21/2017 10:53:01a 281 9 11 29 70 69.3 49.8 29.99 16.00 1.4 649 0.00 0.00 1.19 0.000
1/21/2017 10:54:02a 281 7 11 29 70 69.3 49.8 29.99 16.00 1.5 163 0.00 0.00 1.19 0.000
1/21/2017 10:55:02a 223 7 11 29 70 69.3 49.8 29.99 16.00 1.5 239 0.00 0.00 1.19 0.000
1/21/2017 10:56:05a 247 3 11 29 70 69.3 49.7 29.99 16.00 1.5 239 0.00 0.00 1.19 0.000
1/21/2017 10:57:05a 220 6 11 29 70 69.3 49.7 29.99 16.00 2.2 239 0.00 0.00 1.19 0.000
1/21/2017 10:58:05a 276 6 11 29 70 69.3 49.7 30.00 16.00 1.4 239 0.00 0.00 1.19 0.000
1/21/2017 10:59:05a 276 4 11 29 70 69.3 49.7 30.00 16.00 1.4 236 0.00 0.00 1.19 0.000
1/21/2017 11:00:05a 283 3 11 29 70 69.3 49.6 29.99 16.00 1.4 250 0.00 0.00 1.19 0.000
1/21/2017 11:01:05a 283 2 11 29 69 69.4 49.6 29.99 16.00 1.4 262 0.00 0.00 1.19 0.000
1/21/2017 11:02:05a 244 4 5 29 69 69.4 49.5 30.00 16.00 1.4 292 0.00 0.00 1.19 0.000
1/21/2017 11:03:05a 273 5 7 29 69 69.4 49.5 30.00 16.00 1.8 292 0.00 0.00 1.19 0.000
1/21/2017 11:04:05a 212 5 9 29 69 69.4 49.5 30.00 16.00 1.4 292 0.00 0.00 1.19 0.000
1/21/2017 11:05:08a 218 8 9 29 69 69.4 49.5 30.00 16.00 1.4 316 0.00 0.00 1.18 0.000
1/21/2017 11:06:08a 222 5 9 29 69 69.4 49.5 30.00 16.00 1.4 318 0.00 0.00 1.18 0.000
1/21/2017 11:07:12a 196 7 9 29 69 69.4 49.5 30.00 16.00 1.8 311 0.00 0.00 1.18 0.000
1/21/2017 11:08:12a 242 9 10 29 69 69.4 49.4 30.00 16.00 1.4 301 0.00 0.00 1.18 0.000
1/21/2017 11:09:12a 247 4 10 29 69 69.4 49.3 30.00 16.00 1.4 294 0.00 0.00 1.18 0.000
1/21/2017 11:10:12a 254 5 10 29 69 69.4 49.3 30.00 16.00 1.6 387 0.00 0.00 1.18 0.000
1/21/2017 11:11:12a 258 6 10 29 69 69.4 49.3 30.00 16.00 2.0 387 0.00 0.00 1.18 0.000
1/21/2017 11:12:12a 268 4 10 29 69 69.4 49.2 30.00 16.00 1.5 387 0.00 0.00 1.18 0.000
1/21/2017 11:13:12a 249 7 10 29 69 69.4 49.2 30.00 16.00 2.2 424 0.00 0.00 1.18 0.000
1/21/2017 11:14:12a 246 3 10 29 69 69.4 49.3 30.00 16.00 1.6 424 0.00 0.00 1.18 0.000
1/21/2017 11:15:12a 246 3 10 29 69 69.4 49.2 30.00 16.00 1.6 320 0.00 0.00 1.18 0.000
1/21/2017 11:16:12a 246 4 10 29 69 69.4 49.2 29.99 16.00 1.7 315 0.00 0.00 1.18 0.000
1/21/2017 11:17:12a 245 3 6 29 69 69.4 49.3 29.99 16.00 1.7 338 0.00 0.00 1.18 0.000
1/21/2017 11:18:12a 224 2 6 29 69 69.6 49.3 29.99 16.00 2.3 338 0.00 0.00 1.13 0.000
1/21/2017 11:19:13a 239 4 6 29 69 69.6 49.3 29.99 16.00 1.8 350 0.00 0.00 1.13 0.000
1/21/2017 11:20:13a 261 1 6 29 69 69.6 49.3 29.99 16.00 1.9 768 0.00 0.00 1.13 0.000
1/21/2017 11:21:13a 261 1 6 29 69 69.6 49.3 29.99 16.00 1.6 768 0.00 0.00 1.13 0.000
1/21/2017 11:22:13a 261 1 6 29 69 69.6 49.4 29.99 16.00 1.6 281 0.00 0.00 1.13 0.000
1/21/2017 11:23:13a 298 3 9 29 69 69.6 49.5 29.99 16.00 1.6 288 0.00 0.00 1.13 0.000
1/21/2017 11:24:13a 258 5 9 29 69 69.6 49.5 29.99 16.00 1.6 304 0.00 0.00 1.13 0.000
1/21/2017 11:25:13a 263 4 9 29 69 69.6 49.5 29.99 16.00 2.3 304 0.00 0.00 1.13 0.000
1/21/2017 11:26:16a 220 7 9 29 68 69.6 49.6 29.99 16.00 2.3 304 0.00 0.00 1.13 0.000
1/21/2017 11:27:16a 208 6 9 29 68 69.6 49.6 29.99 16.00 1.8 304 0.00 0.00 1.13 0.000

© All rights reserved. Unauthorized duplication or distribution is prohibited

Never base important decisions on this or any weather information obtained from the Internet

California State University, San Bernardino
5500 University Parkway, San Bernardino, CA. 92407
Phone: (909) 537-7558, Email: Weather Master
Last Updated: